Observation data for Welch on 11/17/2019      Previous  Date       Current Mesonet Observations  Soil Data  Daily Summary Page  Observations in Plain Language
KWE2 170600Z 23006KT 05/04 A2999 RMK A01 T00510037  RH  090%=      5-min Rain = 0
KWE2 170601Z 23006KT 05/04 A2999 RMK A01 T00510037  RH  090%=      5-min Rain = 0
KWE2 170602Z 23006KT 05/04 A2999 RMK A01 T00510037  RH  091%=      5-min Rain = 0
KWE2 170603Z 22006KT 05/04 A2999 RMK A01 T00510037  RH  091%=      5-min Rain = 0
KWE2 170604Z 22005KT 05/04 A2999 RMK A01 T00510038  RH  091%=      5-min Rain = 0
KWE2 170605Z 22005KT 05/04 A2999 RMK A01 T00510037  RH  091%=      5-min Rain = 0
KWE2 170606Z 22005KT 05/04 A2999 RMK A01 T00510037  RH  091%=      5-min Rain = 0
KWE2 170607Z 22005KT 05/04 A2999 RMK A01 T00510037  RH  091%=      5-min Rain = 0
KWE2 170608Z 22005KT 05/04 A2999 RMK A01 T00510037  RH  091%=      5-min Rain = 0
KWE2 170609Z 22005KT 05/04 A2999 RMK A01 T00510037  RH  091%=      5-min Rain = 0
KWE2 170610Z 22005KT 05/04 A2999 RMK A01 T00500036  RH  091%=      5-min Rain = 0
KWE2 170611Z 22005KT 05/04 A2999 RMK A01 T00500036  RH  091%=      5-min Rain = 0
KWE2 170612Z 22005KT 05/04 A2999 RMK A01 T00490036  RH  091%=      5-min Rain = 0
KWE2 170613Z 22005KT 05/04 A2999 RMK A01 T00490036  RH  092%=      5-min Rain = 0
KWE2 170614Z 22005KT 05/04 A2999 RMK A01 T00490036  RH  092%=      5-min Rain = 0
KWE2 170615Z 22005KT 05/04 A2999 RMK A01 T00480036  RH  092%=      5-min Rain = 0
KWE2 170616Z 22005KT 05/04 A2999 RMK A01 T00480036  RH  092%=      5-min Rain = 0
KWE2 170617Z 22005KT 05/04 A2999 RMK A01 T00480037  RH  093%=      5-min Rain = 0
KWE2 170618Z 22005KT 05/04 A2999 RMK A01 T00470037  RH  093%=      5-min Rain = 0
KWE2 170619Z 23005KT 05/04 A2999 RMK A01 T00470037  RH  093%=      5-min Rain = 0
KWE2 170620Z 23005KT 05/04 A2999 RMK A01 T00460036  RH  093%=      5-min Rain = 0
KWE2 170621Z 22005KT 05/04 A2999 RMK A01 T00460037  RH  094%=      5-min Rain = 0
KWE2 170622Z 22005KT 05/04 A2999 RMK A01 T00460037  RH  094%=      5-min Rain = 0
KWE2 170623Z 22005KT 05/04 A2998 RMK A01 T00460038  RH  095%=      5-min Rain = 0
KWE2 170624Z 22005KT 05/04 A2998 RMK A01 T00460039  RH  095%=      5-min Rain = 0
KWE2 170625Z 22005KT 05/04 A2998 RMK A01 T00450038  RH  095%=      5-min Rain = 0
KWE2 170626Z 22005KT 05/04 A2998 RMK A01 T00450039  RH  096%=      5-min Rain = 0
KWE2 170627Z 22006KT 05/04 A2998 RMK A01 T00460041  RH  097%=      5-min Rain = 0
KWE2 170628Z 22006KT 05/04 A2998 RMK A01 T00460039  RH  095%=      5-min Rain = 0
KWE2 170629Z 22006KT 05/04 A2998 RMK A01 T00450037  RH  095%=      5-min Rain = 0
KWE2 170630Z 22006KT 04/04 A2998 RMK A01 T00440038  RH  096%=      5-min Rain = 0
KWE2 170631Z 22006KT 04/04 A2998 RMK A01 T00440038  RH  096%=      5-min Rain = 0
KWE2 170632Z 23006KT 04/04 A2998 RMK A01 T00440039  RH  097%=      5-min Rain = 0
KWE2 170633Z 23006KT 04/04 A2998 RMK A01 T00440040  RH  097%=      5-min Rain = 0
KWE2 170634Z 23006KT 04/04 A2998 RMK A01 T00440041  RH  098%=      5-min Rain = 0
KWE2 170635Z 23006KT 04/04 A2998 RMK A01 T00440041  RH  098%=      5-min Rain = 0
KWE2 170636Z 23006KT 04/04 A2998 RMK A01 T00440041  RH  098%=      5-min Rain = 0
KWE2 170637Z 23006KT 05/04 A2998 RMK A01 T00450041  RH  098%=      5-min Rain = 0
KWE2 170638Z 23006KT 05/04 A2998 RMK A01 T00450042  RH  098%=      5-min Rain = 0
KWE2 170639Z 23006KT 05/04 A2998 RMK A01 T00450042  RH  098%=      5-min Rain = 0
KWE2 170640Z 23006KT 05/04 A2998 RMK A01 T00450042  RH  098%=      5-min Rain = 0
KWE2 170641Z 23006KT 05/04 A2998 RMK A01 T00450041  RH  097%=      5-min Rain = 0
KWE2 170642Z 23006KT 05/04 A2998 RMK A01 T00450041  RH  098%=      5-min Rain = 0
KWE2 170643Z 23006KT 05/04 A2998 RMK A01 T00450042  RH  098%=      5-min Rain = 0
KWE2 170644Z 23006KT 05/04 A2998 RMK A01 T00450041  RH  098%=      5-min Rain = 0
KWE2 170645Z 23006KT 05/04 A2998 RMK A01 T00450041  RH  098%=      5-min Rain = 0
KWE2 170646Z 23006KT 04/04 A2998 RMK A01 T00440041  RH  098%=      5-min Rain = 0
KWE2 170647Z 23006KT 04/04 A2998 RMK A01 T00440041  RH  098%=      5-min Rain = 0
KWE2 170648Z 23006KT 04/04 A2998 RMK A01 T00440040  RH  098%=      5-min Rain = 0
KWE2 170649Z 23005KT 04/04 A2998 RMK A01 T00430040  RH  098%=      5-min Rain = 0
KWE2 170650Z 23005KT 04/04 A2998 RMK A01 T00430040  RH  098%=      5-min Rain = 0
KWE2 170651Z 23005KT 04/04 A2998 RMK A01 T00430040  RH  098%=      5-min Rain = 0
KWE2 170652Z 23005KT 04/04 A2998 RMK A01 T00420039  RH  098%=      5-min Rain = 0
KWE2 170653Z 23005KT 04/04 A2998 RMK A01 T00420039  RH  098%=      5-min Rain = 0
KWE2 170654Z 23005KT 04/04 A2998 RMK A01 T00410039  RH  098%=      5-min Rain = 0
KWE2 170655Z 23005KT 04/04 A2998 RMK A01 T00410038  RH  098%=      5-min Rain = 0
KWE2 170656Z 23005KT 04/04 A2998 RMK A01 T00400038  RH  098%=      5-min Rain = 0
KWE2 170657Z 23005KT 04/04 A2998 RMK A01 T00400037  RH  099%=      5-min Rain = 0
KWE2 170658Z 23005KT 04/04 A2998 RMK A01 T00390038  RH  099%=      5-min Rain = 0
KWE2 170659Z 23005KT 04/04 A2998 RMK A01 T00390038  RH  099%=      5-min Rain = 0
KWE2 170700Z 22005KT 04/04 A2998 RMK A01 T00380038  RH  100%=      5-min Rain = 0
KWE2 170701Z 22005KT 04/04 A2998 RMK A01 T00380038  RH  100%=      5-min Rain = 0
KWE2 170702Z 22005KT 04/04 A2998 RMK A01 T00380038  RH  100%=      5-min Rain = 0
KWE2 170703Z 22005KT 04/04 A2998 RMK A01 T00380038  RH  100%=      5-min Rain = 0
KWE2 170704Z 21005KT 04/04 A2998 RMK A01 T00390039  RH  100%=      5-min Rain = 0
KWE2 170705Z 21005KT 04/04 A2998 RMK A01 T00380038  RH  100%=      5-min Rain = 0
KWE2 170706Z 21005KT 04/04 A2998 RMK A01 T00380038  RH  100%=      5-min Rain = 0
KWE2 170707Z 21005KT 04/04 A2998 RMK A01 T00380038  RH  100%=      5-min Rain = 0
KWE2 170708Z 20005KT 04/04 A2998 RMK A01 T00380038  RH  100%=      5-min Rain = 0
KWE2 170709Z 20005KT 04/04 A2998 RMK A01 T00380038  RH  100%=      5-min Rain = 0
KWE2 170710Z 20005KT 04/04 A2998 RMK A01 T00380038  RH  100%=      5-min Rain = 0
KWE2 170711Z 20005KT 04/04 A2998 RMK A01 T00380038  RH  100%=      5-min Rain = 0
KWE2 170712Z 20005KT 04/04 A2998 RMK A01 T00380038  RH  100%=      5-min Rain = 0
KWE2 170713Z 20004KT 04/04 A2998 RMK A01 T00380038  RH  100%=      5-min Rain = 0
KWE2 170714Z 20004KT 04/04 A2998 RMK A01 T00380038  RH  100%=      5-min Rain = 0
KWE2 170715Z 20004KT 04/04 A2998 RMK A01 T00380038  RH  100%=      5-min Rain = 0
KWE2 170716Z 20004KT 04/04 A2998 RMK A01 T00370037  RH  100%=      5-min Rain = 0
KWE2 170717Z 20003KT 04/04 A2998 RMK A01 T00370037  RH  100%=      5-min Rain = 0
KWE2 170718Z 20003KT 04/04 A2998 RMK A01 T00360036  RH  100%=      5-min Rain = 0
KWE2 170719Z 19003KT 04/04 A2998 RMK A01 T00350035  RH  100%=      5-min Rain = 0
KWE2 170720Z 19002KT 04/04 A2998 RMK A01 T00350035  RH  100%=      5-min Rain = 0
KWE2 170721Z 19002KT 04/04 A2998 RMK A01 T00350035  RH  100%=      5-min Rain = 0
KWE2 170722Z 19002KT 04/04 A2998 RMK A01 T00350035  RH  100%=      5-min Rain = 0
KWE2 170723Z 19002KT 03/03 A2997 RMK A01 T00340034  RH  100%=      5-min Rain = 0
KWE2 170724Z 19003KT 03/03 A2997 RMK A01 T00340034  RH  100%=      5-min Rain = 0
KWE2 170725Z 19004KT 03/03 A2997 RMK A01 T00340034  RH  100%=      5-min Rain = 0
KWE2 170726Z 19004KT 03/03 A2997 RMK A01 T00340034  RH  100%=      5-min Rain = 0
KWE2 170727Z 19004KT 03/03 A2997 RMK A01 T00340034  RH  100%=      5-min Rain = 0
KWE2 170728Z 19004KT 03/03 A2997 RMK A01 T00330033  RH  100%=      5-min Rain = 0
KWE2 170729Z 19005KT 03/03 A2997 RMK A01 T00330033  RH  100%=      5-min Rain = 0
KWE2 170730Z 19005KT 03/03 A2997 RMK A01 T00320032  RH  100%=      5-min Rain = 0
KWE2 170731Z 19005KT 03/03 A2997 RMK A01 T00290029  RH  100%=      5-min Rain = 0
KWE2 170732Z 19005KT 03/03 A2997 RMK A01 T00280027  RH  100%=      5-min Rain = 0
KWE2 170733Z 19005KT 03/03 A2997 RMK A01 T00270027  RH  100%=      5-min Rain = 0
KWE2 170734Z 19005KT 03/03 A2997 RMK A01 T00270027  RH  100%=      5-min Rain = 0
KWE2 170735Z 19005KT 03/03 A2997 RMK A01 T00270028  RH  100%=      5-min Rain = 0
KWE2 170736Z 19005KT 03/03 A2997 RMK A01 T00280028  RH  100%=      5-min Rain = 0
KWE2 170737Z 19005KT 03/03 A2997 RMK A01 T00280028  RH  100%=      5-min Rain = 0
KWE2 170738Z 20005KT 03/03 A2997 RMK A01 T00280028  RH  100%=      5-min Rain = 0
KWE2 170739Z 20005KT 03/03 A2997 RMK A01 T00280028  RH  100%=      5-min Rain = 0
KWE2 170740Z 19005KT 03/03 A2997 RMK A01 T00280028  RH  100%=      5-min Rain = 0
KWE2 170741Z 20005KT 03/03 A2997 RMK A01 T00280028  RH  100%=      5-min Rain = 0
KWE2 170742Z 20005KT 03/03 A2997 RMK A01 T00280028  RH  100%=      5-min Rain = 0
KWE2 170743Z 20005KT 03/03 A2997 RMK A01 T00280028  RH  100%=      5-min Rain = 0
KWE2 170744Z 20005KT 03/03 A2997 RMK A01 T00280028  RH  100%=      5-min Rain = 0
KWE2 170745Z 20004KT 03/03 A2997 RMK A01 T00280028  RH  100%=      5-min Rain = 0
KWE2 170746Z 21004KT 03/03 A2997 RMK A01 T00280028  RH  100%=      5-min Rain = 0
KWE2 170747Z 21004KT 03/03 A2997 RMK A01 T00280028  RH  100%=      5-min Rain = 0
KWE2 170748Z 21004KT 03/03 A2997 RMK A01 T00280028  RH  100%=      5-min Rain = 0
KWE2 170749Z 22004KT 03/03 A2997 RMK A01 T00280028  RH  100%=      5-min Rain = 0
KWE2 170750Z 21004KT 03/03 A2997 RMK A01 T00280028  RH  100%=      5-min Rain = 0
KWE2 170751Z 20004KT 03/03 A2997 RMK A01 T00280028  RH  100%=      5-min Rain = 0
KWE2 170752Z 21004KT 03/03 A2997 RMK A01 T00280028  RH  100%=      5-min Rain = 0
KWE2 170753Z 22004KT 03/03 A2997 RMK A01 T00280028  RH  100%=      5-min Rain = 0
KWE2 170754Z 22004KT 03/03 A2997 RMK A01 T00280028  RH  100%=      5-min Rain = 0
KWE2 170755Z 23004KT 03/03 A2997 RMK A01 T00280028  RH  100%=      5-min Rain = 0
KWE2 170756Z 23004KT 03/03 A2997 RMK A01 T00290029  RH  100%=      5-min Rain = 0
KWE2 170757Z 23003KT 03/03 A2997 RMK A01 T00290029  RH  100%=      5-min Rain = 0
KWE2 170758Z 23003KT 03/03 A2997 RMK A01 T00300030  RH  100%=      5-min Rain = 0
KWE2 170759Z 23003KT 03/03 A2997 RMK A01 T00300030  RH  100%=      5-min Rain = 0
KWE2 170800Z 23002KT 03/03 A2997 RMK A01 T00300030  RH  100%=      5-min Rain = 0
KWE2 170801Z 23002KT 03/03 A2997 RMK A01 T00290029  RH  100%=      5-min Rain = 0
KWE2 170802Z 24001KT 03/03 A2997 RMK A01 T00290029  RH  100%=      5-min Rain = 0
KWE2 170803Z 25001KT 03/03 A2997 RMK A01 T00280028  RH  100%=      5-min Rain = 0
KWE2 170804Z 32000KT 03/03 A2997 RMK A01 T00280028  RH  100%=      5-min Rain = 0
KWE2 170805Z 34001KT 03/03 A2997 RMK A01 T00280028  RH  100%=      5-min Rain = 0
KWE2 170806Z 34001KT 03/03 A2997 RMK A01 T00280028  RH  100%=      5-min Rain = 0
KWE2 170807Z 33000KT 03/03 A2997 RMK A01 T00290029  RH  100%=      5-min Rain = 0
KWE2 170808Z 32000KT 03/03 A2997 RMK A01 T00300030  RH  100%=      5-min Rain = 0
KWE2 170809Z 00000KT 03/03 A2997 RMK A01 T00310031  RH  100%=      5-min Rain = 0
KWE2 170810Z 00000KT 03/03 A2997 RMK A01 T00320032  RH  100%=      5-min Rain = 0
KWE2 170811Z 00000KT 03/03 A2997 RMK A01 T00320032  RH  100%=      5-min Rain = 0
KWE2 170812Z 00000KT 03/03 A2997 RMK A01 T00330033  RH  100%=      5-min Rain = 0
KWE2 170813Z 00000KT 03/03 A2997 RMK A01 T00340034  RH  100%=      5-min Rain = 0
KWE2 170814Z 00000KT 03/03 A2997 RMK A01 T00340034  RH  100%=      5-min Rain = 0
KWE2 170815Z 00000KT 03/03 A2997 RMK A01 T00340034  RH  100%=      5-min Rain = 0
KWE2 170816Z 24000KT 03/03 A2998 RMK A01 T00340034  RH  100%=      5-min Rain = 0
KWE2 170817Z 22000KT 03/03 A2998 RMK A01 T00340034  RH  100%=      5-min Rain = 0
KWE2 170818Z 20000KT 03/03 A2998 RMK A01 T00340034  RH  100%=      5-min Rain = 0
KWE2 170819Z 19001KT 03/03 A2998 RMK A01 T00340034  RH  100%=      5-min Rain = 0
KWE2 170820Z 20001KT 03/03 A2998 RMK A01 T00340034  RH  100%=      5-min Rain = 0
KWE2 170821Z 20001KT 03/03 A2998 RMK A01 T00330033  RH  100%=      5-min Rain = 0
KWE2 170822Z 21002KT 03/03 A2997 RMK A01 T00320032  RH  100%=      5-min Rain = 0
KWE2 170823Z 22002KT 03/03 A2997 RMK A01 T00320032  RH  100%=      5-min Rain = 0
KWE2 170824Z 22002KT 03/03 A2997 RMK A01 T00310031  RH  100%=      5-min Rain = 0
KWE2 170825Z 22002KT 03/03 A2997 RMK A01 T00310031  RH  100%=      5-min Rain = 0
KWE2 170826Z 23002KT 03/03 A2997 RMK A01 T00300030  RH  100%=      5-min Rain = 0
KWE2 170827Z 23002KT 03/03 A2997 RMK A01 T00300030  RH  100%=      5-min Rain = 0
KWE2 170828Z 24003KT 03/03 A2997 RMK A01 T00300030  RH  100%=      5-min Rain = 0
KWE2 170829Z 23003KT 03/03 A2997 RMK A01 T00290029  RH  100%=      5-min Rain = 0
KWE2 170830Z 23004KT 03/03 A2997 RMK A01 T00290029  RH  100%=      5-min Rain = 0
KWE2 170831Z 23004KT 03/03 A2997 RMK A01 T00300030  RH  100%=      5-min Rain = 0
KWE2 170832Z 23004KT 03/03 A2997 RMK A01 T00320032  RH  100%=      5-min Rain = 0
KWE2 170833Z 24003KT 03/03 A2998 RMK A01 T00330033  RH  100%=      5-min Rain = 0
KWE2 170834Z 23004KT 03/03 A2998 RMK A01 T00320032  RH  100%=      5-min Rain = 0
KWE2 170835Z 22004KT 03/03 A2998 RMK A01 T00320032  RH  100%=      5-min Rain = 0
KWE2 170836Z 22004KT 03/03 A2998 RMK A01 T00310031  RH  100%=      5-min Rain = 0
KWE2 170837Z 23004KT 03/03 A2998 RMK A01 T00310031  RH  100%=      5-min Rain = 0
KWE2 170838Z 23004KT 03/03 A2998 RMK A01 T00300030  RH  100%=      5-min Rain = 0
KWE2 170839Z 22004KT 03/03 A2998 RMK A01 T00290029  RH  100%=      5-min Rain = 0
KWE2 170840Z 22004KT 03/03 A2997 RMK A01 T00290029  RH  100%=      5-min Rain = 0
KWE2 170841Z 22004KT 03/03 A2997 RMK A01 T00270027  RH  100%=      5-min Rain = 0
KWE2 170842Z 22003KT 03/03 A2997 RMK A01 T00260026  RH  100%=      5-min Rain = 0
KWE2 170843Z 22003KT 03/03 A2997 RMK A01 T00250025  RH  100%=      5-min Rain = 0
KWE2 170844Z 22003KT 03/03 A2997 RMK A01 T00250025  RH  100%=      5-min Rain = 0
KWE2 170845Z 22003KT 03/03 A2997 RMK A01 T00250025  RH  100%=      5-min Rain = 0
KWE2 170846Z 22004KT 03/03 A2997 RMK A01 T00250025  RH  100%=      5-min Rain = 0
KWE2 170847Z 21004KT 03/03 A2997 RMK A01 T00260026  RH  100%=      5-min Rain = 0
KWE2 170848Z 22004KT 03/03 A2997 RMK A01 T00260026  RH  100%=      5-min Rain = 0
KWE2 170849Z 22004KT 03/03 A2997 RMK A01 T00260026  RH  100%=      5-min Rain = 0
KWE2 170850Z 22005KT 03/03 A2997 RMK A01 T00260026  RH  100%=      5-min Rain = 0
KWE2 170851Z 22005KT 03/03 A2997 RMK A01 T00260026  RH  100%=      5-min Rain = 0
KWE2 170852Z 23004KT 03/03 A2997 RMK A01 T00260026  RH  100%=      5-min Rain = 0
KWE2 170853Z 23004KT 03/03 A2997 RMK A01 T00260026  RH  100%=      5-min Rain = 0
KWE2 170854Z 25004KT 03/03 A2997 RMK A01 T00260026  RH  100%=      5-min Rain = 0
KWE2 170855Z 25004KT 03/03 A2998 RMK A01 T00260026  RH  100%=      5-min Rain = 0
KWE2 170856Z 26004KT 03/03 A2998 RMK A01 T00260026  RH  100%=      5-min Rain = 0
KWE2 170857Z 26004KT 03/03 A2998 RMK A01 T00260026  RH  100%=      5-min Rain = 0
KWE2 170858Z 27004KT 03/03 A2998 RMK A01 T00250025  RH  100%=      5-min Rain = 0
KWE2 170859Z 27004KT 03/03 A2998 RMK A01 T00260026  RH  100%=      5-min Rain = 0
KWE2 170900Z 28004KT 03/03 A2998 RMK A01 T00260026  RH  100%=      5-min Rain = 0
KWE2 170901Z 30005KT 02/02 A2998 RMK A01 T00240024  RH  100%=      5-min Rain = 0
KWE2 170902Z 31005KT 02/02 A2998 RMK A01 T00230023  RH  100%=      5-min Rain = 0
KWE2 170903Z 31005KT 02/02 A2998 RMK A01 T00220022  RH  100%=      5-min Rain = 0
KWE2 170904Z 31005KT 02/02 A2998 RMK A01 T00220022  RH  100%=      5-min Rain = 0
KWE2 170905Z 31005KT 02/02 A2998 RMK A01 T00220022  RH  100%=      5-min Rain = 0
KWE2 170906Z 32005KT 02/02 A2998 RMK A01 T00220022  RH  100%=      5-min Rain = 0
KWE2 170907Z 32006KT 02/02 A2998 RMK A01 T00220022  RH  100%=      5-min Rain = 0
KWE2 170908Z 32005KT 02/02 A2998 RMK A01 T00220022  RH  100%=      5-min Rain = 0
KWE2 170909Z 32005KT 02/02 A2998 RMK A01 T00220022  RH  100%=      5-min Rain = 0
KWE2 170910Z 32005KT 02/02 A2998 RMK A01 T00220022  RH  100%=      5-min Rain = 0
KWE2 170911Z 32005KT 02/02 A2999 RMK A01 T00220022  RH  100%=      5-min Rain = 0
KWE2 170912Z 32005KT 02/02 A2999 RMK A01 T00220023  RH  100%=      5-min Rain = 0
KWE2 170913Z 32006KT 02/02 A2999 RMK A01 T00220022  RH  100%=      5-min Rain = 0
KWE2 170914Z 32006KT 02/02 A2999 RMK A01 T00220022  RH  100%=      5-min Rain = 0
KWE2 170915Z 31006KT 02/02 A2999 RMK A01 T00220022  RH  100%=      5-min Rain = 0
KWE2 170916Z 31006KT 02/02 A2999 RMK A01 T00220022  RH  100%=      5-min Rain = 0
KWE2 170917Z 31006KT 02/02 A2999 RMK A01 T00220022  RH  100%=      5-min Rain = 0
KWE2 170918Z 31005KT 02/02 A2998 RMK A01 T00220022  RH  100%=      5-min Rain = 0
KWE2 170919Z 30005KT 02/02 A2998 RMK A01 T00220022  RH  100%=      5-min Rain = 0
KWE2 170920Z 31005KT 02/02 A2998 RMK A01 T00210021  RH  100%=      5-min Rain = 0
KWE2 170921Z 31006KT 02/02 A2998 RMK A01 T00210021  RH  100%=      5-min Rain = 0
KWE2 170922Z 30006KT 02/02 A2999 RMK A01 T00210021  RH  100%=      5-min Rain = 0
KWE2 170923Z 30006KT 02/02 A2998 RMK A01 T00210021  RH  100%=      5-min Rain = 0
KWE2 170924Z 30006KT 02/02 A2998 RMK A01 T00210021  RH  100%=      5-min Rain = 0
KWE2 170925Z 31006KT 02/02 A2998 RMK A01 T00210021  RH  100%=      5-min Rain = 0
KWE2 170926Z 31005KT 02/02 A2998 RMK A01 T00220022  RH  100%=      5-min Rain = 0
KWE2 170927Z 31006KT 02/02 A2998 RMK A01 T00220022  RH  100%=      5-min Rain = 0
KWE2 170928Z 31006KT 02/02 A2998 RMK A01 T00220022  RH  100%=      5-min Rain = 0
KWE2 170929Z 31005KT 02/02 A2998 RMK A01 T00220022  RH  100%=      5-min Rain = 0
KWE2 170930Z 31005KT 02/02 A2998 RMK A01 T00220022  RH  100%=      5-min Rain = 0
KWE2 170931Z 31005KT 02/02 A2998 RMK A01 T00220022  RH  100%=      5-min Rain = 0
KWE2 170932Z 31005KT 02/02 A2998 RMK A01 T00230023  RH  100%=      5-min Rain = 0
KWE2 170933Z 31004KT 02/02 A2998 RMK A01 T00230023  RH  100%=      5-min Rain = 0
KWE2 170934Z 31004KT 02/02 A2998 RMK A01 T00230023  RH  100%=      5-min Rain = 0
KWE2 170935Z 30004KT 02/02 A2998 RMK A01 T00230023  RH  100%=      5-min Rain = 0
KWE2 170936Z 30004KT 02/02 A2998 RMK A01 T00230023  RH  100%=      5-min Rain = 0
KWE2 170937Z 30004KT 02/02 A2998 RMK A01 T00230023  RH  100%=      5-min Rain = 0
KWE2 170938Z 29004KT 02/02 A2998 RMK A01 T00230023  RH  100%=      5-min Rain = 0
KWE2 170939Z 29004KT 02/02 A2998 RMK A01 T00220022  RH  100%=      5-min Rain = 0
KWE2 170940Z 29004KT 02/02 A2998 RMK A01 T00220022  RH  100%=      5-min Rain = 0
KWE2 170941Z 29004KT 02/02 A2998 RMK A01 T00210021  RH  100%=      5-min Rain = 0
KWE2 170942Z 29004KT 02/02 A2998 RMK A01 T00210021  RH  100%=      5-min Rain = 0
KWE2 170943Z 29004KT 02/02 A2998 RMK A01 T00210021  RH  100%=      5-min Rain = 0
KWE2 170944Z 29004KT 02/02 A2998 RMK A01 T00200020  RH  100%=      5-min Rain = 0
KWE2 170945Z 29004KT 02/02 A2998 RMK A01 T00200020  RH  100%=      5-min Rain = 0
KWE2 170946Z 29004KT 02/02 A2998 RMK A01 T00200020  RH  100%=      5-min Rain = 0
KWE2 170947Z 29005KT 02/02 A2998 RMK A01 T00200020  RH  100%=      5-min Rain = 0
KWE2 170948Z 29005KT 02/02 A2998 RMK A01 T00190019  RH  100%=      5-min Rain = 0
KWE2 170949Z 29005KT 02/02 A2998 RMK A01 T00190019  RH  100%=      5-min Rain = 0
KWE2 170950Z 29005KT 02/02 A2998 RMK A01 T00180018  RH  100%=      5-min Rain = 0
KWE2 170951Z 29005KT 02/02 A2998 RMK A01 T00180018  RH  100%=      5-min Rain = 0
KWE2 170952Z 28005KT 02/02 A2998 RMK A01 T00170017  RH  100%=      5-min Rain = 0
KWE2 170953Z 28005KT 02/02 A2998 RMK A01 T00170017  RH  100%=      5-min Rain = 0
KWE2 170954Z 28005KT 02/02 A2998 RMK A01 T00160016  RH  100%=      5-min Rain = 0
KWE2 170955Z 28004KT 02/02 A2998 RMK A01 T00160016  RH  100%=      5-min Rain = 0
KWE2 170956Z 28004KT 02/02 A2998 RMK A01 T00160016  RH  100%=      5-min Rain = 0
KWE2 170957Z 27005KT 02/02 A2998 RMK A01 T00160016  RH  100%=      5-min Rain = 0
KWE2 170958Z 28004KT 02/02 A2998 RMK A01 T00160016  RH  100%=      5-min Rain = 0
KWE2 170959Z 28004KT 02/02 A2998 RMK A01 T00160016  RH  100%=      5-min Rain = 0
KWE2 171000Z 28004KT 02/02 A2998 RMK A01 T00170017  RH  100%=      5-min Rain = 0
KWE2 171001Z 28004KT 02/02 A2998 RMK A01 T00180018  RH  100%=      5-min Rain = 0
KWE2 171002Z 28004KT 02/02 A2998 RMK A01 T00180018  RH  100%=      5-min Rain = 0
KWE2 171003Z 28004KT 02/02 A2998 RMK A01 T00180018  RH  100%=      5-min Rain = 0
KWE2 171004Z 28005KT 02/02 A2998 RMK A01 T00190019  RH  100%=      5-min Rain = 0
KWE2 171005Z 28005KT 02/02 A2998 RMK A01 T00190019  RH  100%=      5-min Rain = 0
KWE2 171006Z 29005KT 02/02 A2999 RMK A01 T00190019  RH  100%=      5-min Rain = 0
KWE2 171007Z 29005KT 02/02 A2999 RMK A01 T00180018  RH  100%=      5-min Rain = 0
KWE2 171008Z 29005KT 02/02 A2999 RMK A01 T00170017  RH  100%=      5-min Rain = 0
KWE2 171009Z 30005KT 02/02 A2999 RMK A01 T00170017  RH  100%=      5-min Rain = 0
KWE2 171010Z 30005KT 02/02 A2999 RMK A01 T00160016  RH  100%=      5-min Rain = 0
KWE2 171011Z 30006KT 02/02 A2999 RMK A01 T00160016  RH  100%=      5-min Rain = 0
KWE2 171012Z 31005KT 02/02 A2999 RMK A01 T00150015  RH  100%=      5-min Rain = 0
KWE2 171013Z 31005KT 01/01 A2999 RMK A01 T00140014  RH  100%=      5-min Rain = 0
KWE2 171014Z 31006KT 01/01 A2999 RMK A01 T00140014  RH  100%=      5-min Rain = 0
KWE2 171015Z 32007KT 01/01 A2999 RMK A01 T00140014  RH  100%=      5-min Rain = 0
KWE2 171016Z 32007KT 01/01 A2999 RMK A01 T00140014  RH  100%=      5-min Rain = 0
KWE2 171017Z 32008KT 02/02 A2999 RMK A01 T00160016  RH  100%=      5-min Rain = 0
KWE2 171018Z 32008KT 02/02 A2999 RMK A01 T00180018  RH  100%=      5-min Rain = 0
KWE2 171019Z 32009KT 02/02 A2999 RMK A01 T00220022  RH  100%=      5-min Rain = 0
KWE2 171020Z 32009KT 03/03 A2999 RMK A01 T00290029  RH  100%=      5-min Rain = 0
KWE2 171021Z 33009KT 03/03 A2999 RMK A01 T00340034  RH  100%=      5-min Rain = 0
KWE2 171022Z 34010KT 04/03 A30 RMK A01 T00370033  RH  097%=      5-min Rain = 0
KWE2 171023Z 34010KT 04/03 A30 RMK A01 T00400028  RH  092%=      5-min Rain = 0
KWE2 171024Z 34012KT 04/03 A30 RMK A01 T00420026  RH  089%=      5-min Rain = 0
KWE2 171025Z 34012KT 05/03 A30 RMK A01 T00460025  RH  086%=      5-min Rain = 0
KWE2 171026Z 35013KT 05/02 A30 RMK A01 T00500023  RH  083%=      5-min Rain = 0
KWE2 171027Z 35013KT 05/02 A30 RMK A01 T00530022  RH  081%=      5-min Rain = 0
KWE2 171028Z 35012KT 05/02 A30 RMK A01 T00540021  RH  079%=      5-min Rain = 0
KWE2 171029Z 35013KT 05/02 A30 RMK A01 T00540020  RH  079%=      5-min Rain = 0
KWE2 171030Z 36013KT 05/02 A30 RMK A01 T00540020  RH  078%=      5-min Rain = 0
KWE2 171031Z 36014KT 06/02 A30 RMK A01 T00550020  RH  078%=      5-min Rain = 0
KWE2 171032Z 35014KT 06/02 A30 RMK A01 T00550020  RH  078%=      5-min Rain = 0
KWE2 171033Z 35014KT 06/02 A30 RMK A01 T00570020  RH  077%=      5-min Rain = 0
KWE2 171034Z 00014KT 06/02 A30 RMK A01 T00580020  RH  077%=      5-min Rain = 0
KWE2 171035Z 00017KT 06/02 A30 RMK A01 T00590020  RH  076%=      5-min Rain = 0
KWE2 171036Z 36017KT 06/02 A30 RMK A01 T00620020  RH  074%=      5-min Rain = 0
KWE2 171037Z 36018KT 07/02 A3001 RMK A01 T00650020  RH  073%=      5-min Rain = 0
KWE2 171038Z 00017KT 07/02 A3001 RMK A01 T00660019  RH  072%=      5-min Rain = 0
KWE2 171039Z 01017KT 07/02 A3001 RMK A01 T00670019  RH  071%=      5-min Rain = 0
KWE2 171040Z 00017KT 07/02 A3001 RMK A01 T00670018  RH  071%=      5-min Rain = 0
KWE2 171041Z 00018KT 07/02 A3001 RMK A01 T00680018  RH  071%=      5-min Rain = 0
KWE2 171042Z 01018KT 07/02 A3001 RMK A01 T00690018  RH  070%=      5-min Rain = 0
KWE2 171043Z 01018KT 07/02 A3001 RMK A01 T00700018  RH  069%=      5-min Rain = 0
KWE2 171044Z 00018KT 07/02 A3001 RMK A01 T00700017  RH  069%=      5-min Rain = 0
KWE2 171045Z 01016KT 07/02 A3001 RMK A01 T00710018  RH  069%=      5-min Rain = 0
KWE2 171046Z 00019G24KT 07/02 A3001 RMK A01 T00700018  RH  069%=      5-min Rain = 0
KWE2 171047Z 00019KT 07/02 A3001 RMK A01 T00710018  RH  069%=      5-min Rain = 0
KWE2 171048Z 01017KT 07/02 A3001 RMK A01 T00720018  RH  069%=      5-min Rain = 0
KWE2 171049Z 00019KT 07/02 A3001 RMK A01 T00720018  RH  069%=      5-min Rain = 0
KWE2 171050Z 36017KT 07/02 A3002 RMK A01 T00730017  RH  068%=      5-min Rain = 0
KWE2 171051Z 00016G21KT 07/02 A3002 RMK A01 T00730017  RH  068%=      5-min Rain = 0
KWE2 171052Z 01017KT 07/02 A3002 RMK A01 T00730018  RH  068%=      5-min Rain = 0
KWE2 171053Z 00019KT 07/02 A3002 RMK A01 T00730017  RH  068%=      5-min Rain = 0
KWE2 171054Z 01019KT 07/02 A3002 RMK A01 T00740017  RH  067%=      5-min Rain = 0
KWE2 171055Z 01019KT 08/02 A3002 RMK A01 T00750016  RH  066%=      5-min Rain = 0
KWE2 171056Z 01018KT 08/02 A3002 RMK A01 T00760016  RH  066%=      5-min Rain = 0
KWE2 171057Z 01019G24KT 08/02 A3002 RMK A01 T00770016  RH  065%=      5-min Rain = 0
KWE2 171058Z 01019G26KT 08/02 A3002 RMK A01 T00770016  RH  065%=      5-min Rain = 0
KWE2 171059Z 01017KT 08/02 A3002 RMK A01 T00770015  RH  065%=      5-min Rain = 0
KWE2 171100Z 00018KT 08/02 A3002 RMK A01 T00770016  RH  065%=      5-min Rain = 0
KWE2 171101Z 01017KT 08/02 A3002 RMK A01 T00770015  RH  065%=      5-min Rain = 0
KWE2 171102Z 01018G24KT 08/01 A3002 RMK A01 T00780014  RH  064%=      5-min Rain = 0
KWE2 171103Z 00018G23KT 08/01 A3002 RMK A01 T00770014  RH  064%=      5-min Rain = 0
KWE2 171104Z 01017KT 08/01 A3002 RMK A01 T00770014  RH  064%=      5-min Rain = 0
KWE2 171105Z 00017KT 08/01 A3002 RMK A01 T00770014  RH  064%=      5-min Rain = 0
KWE2 171106Z 01017KT 08/01 A3002 RMK A01 T00760014  RH  064%=      5-min Rain = 0
KWE2 171107Z 00016KT 08/01 A3002 RMK A01 T00760013  RH  064%=      5-min Rain = 0
KWE2 171108Z 01016KT 08/01 A3002 RMK A01 T00760013  RH  064%=      5-min Rain = 0
KWE2 171109Z 00017KT 08/01 A3002 RMK A01 T00760013  RH  064%=      5-min Rain = 0
KWE2 171110Z 00015KT 08/01 A3002 RMK A01 T00760013  RH  064%=      5-min Rain = 0
KWE2 171111Z 00015G20KT 08/01 A3002 RMK A01 T00750012  RH  064%=      5-min Rain = 0
KWE2 171112Z 00013KT 08/01 A3002 RMK A01 T00750013  RH  065%=      5-min Rain = 0
KWE2 171113Z 36015KT 07/01 A3002 RMK A01 T00740012  RH  065%=      5-min Rain = 0
KWE2 171114Z 00016KT 07/01 A3002 RMK A01 T00740012  RH  065%=      5-min Rain = 0
KWE2 171115Z 01016KT 07/01 A3002 RMK A01 T00740011  RH  064%=      5-min Rain = 0
KWE2 171116Z 01015KT 08/01 A3002 RMK A01 T00750011  RH  064%=      5-min Rain = 0
KWE2 171117Z 01014KT 08/01 A3002 RMK A01 T00750011  RH  064%=      5-min Rain = 0
KWE2 171118Z 01013KT 07/01 A3002 RMK A01 T00740011  RH  064%=      5-min Rain = 0
KWE2 171119Z 01016KT 07/01 A3002 RMK A01 T00740011  RH  064%=      5-min Rain = 0
KWE2 171120Z 01015KT 07/01 A3002 RMK A01 T00740010  RH  064%=      5-min Rain = 0
KWE2 171121Z 01015KT 07/01 A3002 RMK A01 T00730010  RH  064%=      5-min Rain = 0
KWE2 171122Z 01015KT 07/01 A3002 RMK A01 T00740009  RH  064%=      5-min Rain = 0
KWE2 171123Z 01015KT 07/01 A3003 RMK A01 T00740009  RH  064%=      5-min Rain = 0
KWE2 171124Z 01014KT 07/01 A3003 RMK A01 T00730009  RH  063%=      5-min Rain = 0
KWE2 171125Z 00014KT 07/01 A3003 RMK A01 T00740009  RH  063%=      5-min Rain = 0
KWE2 171126Z 01014KT 07/01 A3003 RMK A01 T00740009  RH  063%=      5-min Rain = 0
KWE2 171127Z 01014KT 07/01 A3003 RMK A01 T00740009  RH  063%=      5-min Rain = 0
KWE2 171128Z 01012KT 07/01 A3003 RMK A01 T00740008  RH  063%=      5-min Rain = 0
KWE2 171129Z 01013KT 07/01 A3003 RMK A01 T00730008  RH  064%=      5-min Rain = 0
KWE2 171130Z 01013KT 07/01 A3003 RMK A01 T00720008  RH  064%=      5-min Rain = 0
KWE2 171131Z 01013KT 07/01 A3003 RMK A01 T00720008  RH  064%=      5-min Rain = 0
KWE2 171132Z 01013KT 07/01 A3003 RMK A01 T00720008  RH  064%=      5-min Rain = 0
KWE2 171133Z 01014KT 07/01 A3003 RMK A01 T00720007  RH  063%=      5-min Rain = 0
KWE2 171134Z 01013KT 07/01 A3003 RMK A01 T00730007  RH  063%=      5-min Rain = 0
KWE2 171135Z 01014KT 07/01 A3003 RMK A01 T00730007  RH  063%=      5-min Rain = 0
KWE2 171136Z 00013KT 07/01 A3003 RMK A01 T00730007  RH  063%=      5-min Rain = 0
KWE2 171137Z 01014KT 07/01 A3003 RMK A01 T00730007  RH  063%=      5-min Rain = 0
KWE2 171138Z 01013KT 07/01 A3003 RMK A01 T00730007  RH  063%=      5-min Rain = 0
KWE2 171139Z 01013KT 07/01 A3003 RMK A01 T00720006  RH  063%=      5-min Rain = 0
KWE2 171140Z 01014KT 07/01 A3003 RMK A01 T00730006  RH  062%=      5-min Rain = 0
KWE2 171141Z 01013KT 07/01 A3004 RMK A01 T00730006  RH  062%=      5-min Rain = 0
KWE2 171142Z 01015KT 07/01 A3004 RMK A01 T00730006  RH  063%=      5-min Rain = 0
KWE2 171143Z 01014KT 07/01 A3004 RMK A01 T00730005  RH  062%=      5-min Rain = 0
KWE2 171144Z 01014KT 07/01 A3004 RMK A01 T00730005  RH  062%=      5-min Rain = 0
KWE2 171145Z 00013KT 07/01 A3004 RMK A01 T00730005  RH  062%=      5-min Rain = 0
KWE2 171146Z 36013KT 07/01 A3004 RMK A01 T00720005  RH  063%=      5-min Rain = 0
KWE2 171147Z 36014KT 07/01 A3004 RMK A01 T00720006  RH  063%=      5-min Rain = 0
KWE2 171148Z 00014KT 07/01 A3004 RMK A01 T00710005  RH  063%=      5-min Rain = 0
KWE2 171149Z 00012KT 07/01 A3004 RMK A01 T00710005  RH  063%=      5-min Rain = 0
KWE2 171150Z 36013KT 07/01 A3005 RMK A01 T00700005  RH  063%=      5-min Rain = 0
KWE2 171151Z 01013KT 07/01 A3005 RMK A01 T00700005  RH  063%=      5-min Rain = 0
KWE2 171152Z 00013KT 07/01 A3005 RMK A01 T00700005  RH  063%=      5-min Rain = 0
KWE2 171153Z 35013KT 07/01 A3005 RMK A01 T00700005  RH  064%=      5-min Rain = 0
KWE2 171154Z 36012KT 07/01 A3005 RMK A01 T00690005  RH  064%=      5-min Rain = 0
KWE2 171155Z 00012KT 07/01 A3005 RMK A01 T00690005  RH  063%=      5-min Rain = 0
KWE2 171156Z 00013KT 07/01 A3005 RMK A01 T00690005  RH  064%=      5-min Rain = 0
KWE2 171157Z 36013KT 07/00 A3005 RMK A01 T00680004  RH  064%=      5-min Rain = 0
KWE2 171158Z 00013KT 07/01 A3005 RMK A01 T00690005  RH  064%=      5-min Rain = 0
KWE2 171159Z 36013KT 07/01 A3005 RMK A01 T00680005  RH  064%=      5-min Rain = 0
KWE2 171200Z 36012KT 07/01 A3005 RMK A01 T00680005  RH  064%=      5-min Rain = 0
KWE2 171201Z 36011KT 07/00 A3005 RMK A01 T00670004  RH  064%=      5-min Rain = 0
KWE2 171202Z 35012KT 07/00 A3005 RMK A01 T00670004  RH  064%=      5-min Rain = 0
KWE2 171203Z 00012KT 07/00 A3005 RMK A01 T00670004  RH  064%=      5-min Rain = 0
KWE2 171204Z 36015KT 07/00 A3005 RMK A01 T00680004  RH  064%=      5-min Rain = 0
KWE2 171205Z 35011KT 07/00 A3006 RMK A01 T00670004  RH  064%=      5-min Rain = 0
KWE2 171206Z 36012KT 07/00 A3006 RMK A01 T00670004  RH  064%=      5-min Rain = 0
KWE2 171207Z 36012KT 07/00 A3006 RMK A01 T00670004  RH  064%=      5-min Rain = 0
KWE2 171208Z 35011KT 07/00 A3006 RMK A01 T00670004  RH  064%=      5-min Rain = 0
KWE2 171209Z 36011KT 07/00 A3006 RMK A01 T00660003  RH  064%=      5-min Rain = 0
KWE2 171210Z 36011KT 07/00 A3006 RMK A01 T00660003  RH  064%=      5-min Rain = 0
KWE2 171211Z 36012KT 07/00 A3006 RMK A01 T00660003  RH  064%=      5-min Rain = 0
KWE2 171212Z 36012KT 07/00 A3006 RMK A01 T00660003  RH  064%=      5-min Rain = 0
KWE2 171213Z 00012KT 07/00 A3006 RMK A01 T00660003  RH  064%=      5-min Rain = 0
KWE2 171214Z 35011KT 07/00 A3007 RMK A01 T00660003  RH  064%=      5-min Rain = 0
KWE2 171215Z 36011KT 07/00 A3007 RMK A01 T00660002  RH  064%=      5-min Rain = 0
KWE2 171216Z 00010KT 07/00 A3007 RMK A01 T00660003  RH  064%=      5-min Rain = 0
KWE2 171217Z 00010KT 07/00 A3007 RMK A01 T00660003  RH  064%=      5-min Rain = 0
KWE2 171218Z 00012KT 07/00 A3007 RMK A01 T00660003  RH  064%=      5-min Rain = 0
KWE2 171219Z 36010KT 07/00 A3007 RMK A01 T00660003  RH  064%=      5-min Rain = 0
KWE2 171220Z 36011KT 07/00 A3007 RMK A01 T00650002  RH  064%=      5-min Rain = 0
KWE2 171221Z 00011KT 07/00 A3007 RMK A01 T00650002  RH  064%=      5-min Rain = 0
KWE2 171222Z 00012KT 07/00 A3007 RMK A01 T00660002  RH  064%=      5-min Rain = 0
KWE2 171223Z 36012KT 07/00 A3007 RMK A01 T00660002  RH  064%=      5-min Rain = 0
KWE2 171224Z 36013KT 07/00 A3007 RMK A01 T00660002  RH  064%=      5-min Rain = 0
KWE2 171225Z 00012KT 07/00 A3007 RMK A01 T00670002  RH  063%=      5-min Rain = 0
KWE2 171226Z 00013KT 07/00 A3007 RMK A01 T00660002  RH  063%=      5-min Rain = 0
KWE2 171227Z 00013KT 07/00 A3007 RMK A01 T00660001  RH  063%=      5-min Rain = 0
KWE2 171228Z 00011KT 07/00 A3007 RMK A01 T00670001  RH  063%=      5-min Rain = 0
KWE2 171229Z 01012KT 07/00 A3007 RMK A01 T00670002  RH  063%=      5-min Rain = 0
KWE2 171230Z 00012KT 07/00 A3007 RMK A01 T00670002  RH  063%=      5-min Rain = 0
KWE2 171231Z 00012KT 07/00 A3007 RMK A01 T00670002  RH  063%=      5-min Rain = 0
KWE2 171232Z 00012KT 07/00 A3007 RMK A01 T00670001  RH  063%=      5-min Rain = 0
KWE2 171233Z 00011KT 07/00 A3008 RMK A01 T00670001  RH  063%=      5-min Rain = 0
KWE2 171234Z 00012KT 07/00 A3008 RMK A01 T00670001  RH  063%=      5-min Rain = 0
KWE2 171235Z 00012KT 07/00 A3008 RMK A01 T00670002  RH  063%=      5-min Rain = 0
KWE2 171236Z 00012KT 07/00 A3008 RMK A01 T00660001  RH  063%=      5-min Rain = 0
KWE2 171237Z 00012KT 07/00 A3008 RMK A01 T00660001  RH  063%=      5-min Rain = 0
KWE2 171238Z 00012KT 07/00 A3008 RMK A01 T00660001  RH  063%=      5-min Rain = 0
KWE2 171239Z 00012KT 07/00 A3008 RMK A01 T00670001  RH  063%=      5-min Rain = 0
KWE2 171240Z 00012KT 07/00 A3008 RMK A01 T00670001  RH  063%=      5-min Rain = 0
KWE2 171241Z 00012KT 07/00 A3008 RMK A01 T00670001  RH  063%=      5-min Rain = 0
KWE2 171242Z 00012KT 07/00 A3008 RMK A01 T00670001  RH  063%=      5-min Rain = 0
KWE2 171243Z 35011KT 07/00 A3009 RMK A01 T00670001  RH  063%=      5-min Rain = 0
KWE2 171244Z 00011KT 07/00 A3009 RMK A01 T00670001  RH  063%=      5-min Rain = 0
KWE2 171245Z 00011KT 07/00 A3009 RMK A01 T00660001  RH  063%=      5-min Rain = 0
KWE2 171246Z 00011KT 07/00 A3009 RMK A01 T00660001  RH  063%=      5-min Rain = 0
KWE2 171247Z 01011KT 07/00 A3009 RMK A01 T00660001  RH  063%=      5-min Rain = 0
KWE2 171248Z 00011KT 07/00 A3009 RMK A01 T00670001  RH  063%=      5-min Rain = 0
KWE2 171249Z 01011KT 07/00 A3009 RMK A01 T00670001  RH  063%=      5-min Rain = 0
KWE2 171250Z 36011KT 07/00 A3009 RMK A01 T00660001  RH  063%=      5-min Rain = 0
KWE2 171251Z 36012KT 07/00 A3009 RMK A01 T00660001  RH  063%=      5-min Rain = 0
KWE2 171252Z 36011KT 07/00 A3009 RMK A01 T00660001  RH  063%=      5-min Rain = 0
KWE2 171253Z 36012KT 07/00 A3009 RMK A01 T00670001  RH  063%=      5-min Rain = 0
KWE2 171254Z 00013KT 07/00 A301 RMK A01 T00670001  RH  063%=      5-min Rain = 0
KWE2 171255Z 36011KT 07/00 A301 RMK A01 T00670001  RH  063%=      5-min Rain = 0
KWE2 171256Z 36011KT 07/00 A301 RMK A01 T00670001  RH  063%=      5-min Rain = 0
KWE2 171257Z 00012KT 07/00 A301 RMK A01 T00650001  RH  063%=      5-min Rain = 0
KWE2 171258Z 36012KT 07/00 A301 RMK A01 T00650001  RH  063%=      5-min Rain = 0
KWE2 171259Z 36011KT 07/00 A301 RMK A01 T00650001  RH  063%=      5-min Rain = 0
KWE2 171300Z 00011KT 07/00 A301 RMK A01 T00650001  RH  064%=      5-min Rain = 0
KWE2 171301Z 36012KT 06/00 A301 RMK A01 T00640001  RH  064%=      5-min Rain = 0
KWE2 171302Z 36012KT 07/00 A301 RMK A01 T00650001  RH  064%=      5-min Rain = 0
KWE2 171303Z 35011KT 06/00 A301 RMK A01 T00640001  RH  064%=      5-min Rain = 0
KWE2 171304Z 36012KT 06/00 A301 RMK A01 T00640001  RH  064%=      5-min Rain = 0
KWE2 171305Z 36012KT 07/00 A301 RMK A01 T00650001  RH  064%=      5-min Rain = 0
KWE2 171306Z 36011KT 06/00 A301 RMK A01 T00640001  RH  064%=      5-min Rain = 0
KWE2 171307Z 36011KT 06/00 A301 RMK A01 T00640001  RH  064%=      5-min Rain = 0
KWE2 171308Z 36012KT 06/00 A301 RMK A01 T00640001  RH  064%=      5-min Rain = 0
KWE2 171309Z 36012KT 06/00 A3011 RMK A01 T00640001  RH  064%=      5-min Rain = 0
KWE2 171310Z 36011KT 06/00 A3011 RMK A01 T00630001  RH  064%=      5-min Rain = 0
KWE2 171311Z 00012KT 06/00 A3011 RMK A01 T00640001  RH  064%=      5-min Rain = 0
KWE2 171312Z 36012KT 06/00 A3011 RMK A01 T00640001  RH  064%=      5-min Rain = 0
KWE2 171313Z 36011KT 06/00 A3011 RMK A01 T00640001  RH  064%=      5-min Rain = 0
KWE2 171314Z 36012KT 06/00 A3011 RMK A01 T00640001  RH  064%=      5-min Rain = 0
KWE2 171315Z 36012KT 06/00 A3011 RMK A01 T00630001  RH  064%=      5-min Rain = 0
KWE2 171316Z 36012KT 06/00 A3011 RMK A01 T00640001  RH  064%=      5-min Rain = 0
KWE2 171317Z 36011KT 06/00 A3011 RMK A01 T00640001  RH  064%=      5-min Rain = 0
KWE2 171318Z 35011KT 06/00 A3011 RMK A01 T00630001  RH  064%=      5-min Rain = 0
KWE2 171319Z 36012KT 06/00 A3011 RMK A01 T00630001  RH  064%=      5-min Rain = 0
KWE2 171320Z 36012KT 06/00 A3011 RMK A01 T00630001  RH  064%=      5-min Rain = 0
KWE2 171321Z 35011KT 06/00 A3011 RMK A01 T00630000  RH  064%=      5-min Rain = 0
KWE2 171322Z 36012KT 06/00 A3011 RMK A01 T00630001  RH  064%=      5-min Rain = 0
KWE2 171323Z 36012KT 06/00 A3011 RMK A01 T00630001  RH  064%=      5-min Rain = 0
KWE2 171324Z 36013KT 06/00 A3012 RMK A01 T00640001  RH  064%=      5-min Rain = 0
KWE2 171325Z 36012KT 07/00 A3012 RMK A01 T00650001  RH  064%=      5-min Rain = 0
KWE2 171326Z 36012KT 07/00 A3012 RMK A01 T00650001  RH  064%=      5-min Rain = 0
KWE2 171327Z 00014KT 06/00 A3012 RMK A01 T00640001  RH  064%=      5-min Rain = 0
KWE2 171328Z 00012KT 07/00 A3012 RMK A01 T00650001  RH  064%=      5-min Rain = 0
KWE2 171329Z 00011KT 07/00 A3012 RMK A01 T00650001  RH  064%=      5-min Rain = 0
KWE2 171330Z 36013KT 07/00 A3012 RMK A01 T00650001  RH  064%=      5-min Rain = 0
KWE2 171331Z 01015KT 07/00 A3012 RMK A01 T00650001  RH  064%=      5-min Rain = 0
KWE2 171332Z 00013KT 07/00 A3012 RMK A01 T00650001  RH  064%=      5-min Rain = 0
KWE2 171333Z 00014KT 07/00 A3012 RMK A01 T00650001  RH  064%=      5-min Rain = 0
KWE2 171334Z 01014KT 07/00 A3012 RMK A01 T00660001  RH  063%=      5-min Rain = 0
KWE2 171335Z 00013KT 07/00 A3012 RMK A01 T00670001  RH  063%=      5-min Rain = 0
KWE2 171336Z 00015KT 07/00 A3012 RMK A01 T00670002  RH  063%=      5-min Rain = 0
KWE2 171337Z 00014KT 07/00 A3012 RMK A01 T00670002  RH  063%=      5-min Rain = 0
KWE2 171338Z 36014KT 07/00 A3012 RMK A01 T00680002  RH  063%=      5-min Rain = 0
KWE2 171339Z 00014G19KT 07/00 A3012 RMK A01 T00680002  RH  063%=      5-min Rain = 0
KWE2 171340Z 00013KT 07/00 A3012 RMK A01 T00680002  RH  063%=      5-min Rain = 0
KWE2 171341Z 00014KT 07/00 A3012 RMK A01 T00680002  RH  063%=      5-min Rain = 0
KWE2 171342Z 00013KT 07/00 A3013 RMK A01 T00680002  RH  063%=      5-min Rain = 0
KWE2 171343Z 00014KT 07/00 A3013 RMK A01 T00680002  RH  063%=      5-min Rain = 0
KWE2 171344Z 00013KT 07/00 A3013 RMK A01 T00680002  RH  063%=      5-min Rain = 0
KWE2 171345Z 00014KT 07/00 A3013 RMK A01 T00680002  RH  063%=      5-min Rain = 0
KWE2 171346Z 00013KT 07/00 A3013 RMK A01 T00690002  RH  063%=      5-min Rain = 0
KWE2 171347Z 00014KT 07/00 A3013 RMK A01 T00690002  RH  063%=      5-min Rain = 0
KWE2 171348Z 36015KT 07/00 A3013 RMK A01 T00690002  RH  062%=      5-min Rain = 0
KWE2 171349Z 00014KT 07/00 A3013 RMK A01 T00690002  RH  062%=      5-min Rain = 0
KWE2 171350Z 36014KT 07/00 A3013 RMK A01 T00690002  RH  062%=      5-min Rain = 0
KWE2 171351Z 00013KT 07/00 A3014 RMK A01 T00700003  RH  062%=      5-min Rain = 0
KWE2 171352Z 01012KT 07/00 A3014 RMK A01 T00690003  RH  063%=      5-min Rain = 0
KWE2 171353Z 00014KT 07/00 A3014 RMK A01 T00690003  RH  063%=      5-min Rain = 0
KWE2 171354Z 36014KT 07/00 A3014 RMK A01 T00690003  RH  062%=      5-min Rain = 0
KWE2 171355Z 36014KT 07/00 A3014 RMK A01 T00700003  RH  062%=      5-min Rain = 0
KWE2 171356Z 00015KT 07/00 A3014 RMK A01 T00700003  RH  062%=      5-min Rain = 0
KWE2 171357Z 00016KT 07/00 A3014 RMK A01 T00710003  RH  062%=      5-min Rain = 0
KWE2 171358Z 00015KT 07/00 A3014 RMK A01 T00710003  RH  062%=      5-min Rain = 0
KWE2 171359Z 00015KT 07/00 A3014 RMK A01 T00710003  RH  062%=      5-min Rain = 0
KWE2 171400Z 00012KT 07/00 A3014 RMK A01 T00710003  RH  062%=      5-min Rain = 0
KWE2 171401Z 36015KT 07/00 A3014 RMK A01 T00710003  RH  062%=      5-min Rain = 0
KWE2 171402Z 00014KT 07/00 A3014 RMK A01 T00720004  RH  062%=      5-min Rain = 0
KWE2 171403Z 36015KT 07/00 A3014 RMK A01 T00720004  RH  062%=      5-min Rain = 0
KWE2 171404Z 01014KT 07/00 A3015 RMK A01 T00720004  RH  062%=      5-min Rain = 0
KWE2 171405Z 00014KT 07/00 A3015 RMK A01 T00720004  RH  062%=      5-min Rain = 0
KWE2 171406Z 36013KT 07/00 A3015 RMK A01 T00720004  RH  062%=      5-min Rain = 0
KWE2 171407Z 36012KT 07/00 A3015 RMK A01 T00720004  RH  062%=      5-min Rain = 0
KWE2 171408Z 00014KT 07/00 A3015 RMK A01 T00720004  RH  062%=      5-min Rain = 0
KWE2 171409Z 00013KT 07/00 A3015 RMK A01 T00730004  RH  062%=      5-min Rain = 0
KWE2 171410Z 00013G18KT 07/01 A3015 RMK A01 T00730005  RH  062%=      5-min Rain = 0
KWE2 171411Z 00014KT 07/01 A3015 RMK A01 T00730005  RH  062%=      5-min Rain = 0
KWE2 171412Z 00014KT 07/01 A3015 RMK A01 T00740005  RH  062%=      5-min Rain = 0
KWE2 171413Z 01014KT 07/01 A3015 RMK A01 T00740005  RH  061%=      5-min Rain = 0
KWE2 171414Z 00014KT 07/01 A3015 RMK A01 T00740005  RH  062%=      5-min Rain = 0
KWE2 171415Z 00015KT 07/01 A3015 RMK A01 T00740005  RH  061%=      5-min Rain = 0
KWE2 171416Z 01015G20KT 08/01 A3016 RMK A01 T00750005  RH  061%=      5-min Rain = 0
KWE2 171417Z 01013KT 08/01 A3016 RMK A01 T00750005  RH  061%=      5-min Rain = 0
KWE2 171418Z 00013KT 08/01 A3016 RMK A01 T00750006  RH  061%=      5-min Rain = 0
KWE2 171419Z 00014KT 08/01 A3016 RMK A01 T00750006  RH  061%=      5-min Rain = 0
KWE2 171420Z 00012KT 08/01 A3016 RMK A01 T00750006  RH  061%=      5-min Rain = 0
KWE2 171421Z 00016KT 08/01 A3016 RMK A01 T00760006  RH  061%=      5-min Rain = 0
KWE2 171422Z 01013KT 08/01 A3016 RMK A01 T00760006  RH  061%=      5-min Rain = 0
KWE2 171423Z 00013KT 08/01 A3016 RMK A01 T00770007  RH  061%=      5-min Rain = 0
KWE2 171424Z 01015KT 08/01 A3016 RMK A01 T00770006  RH  061%=      5-min Rain = 0
KWE2 171425Z 01013KT 08/01 A3016 RMK A01 T00770006  RH  061%=      5-min Rain = 0
KWE2 171426Z 01013KT 08/01 A3016 RMK A01 T00770007  RH  061%=      5-min Rain = 0
KWE2 171427Z 01012KT 08/01 A3016 RMK A01 T00780008  RH  061%=      5-min Rain = 0
KWE2 171428Z 01015KT 08/01 A3016 RMK A01 T00770007  RH  061%=      5-min Rain = 0
KWE2 171429Z 01013KT 08/01 A3016 RMK A01 T00780007  RH  061%=      5-min Rain = 0
KWE2 171430Z 01014KT 08/01 A3016 RMK A01 T00780007  RH  061%=      5-min Rain = 0
KWE2 171431Z 01014KT 08/01 A3016 RMK A01 T00780007  RH  061%=      5-min Rain = 0
KWE2 171432Z 00014KT 08/01 A3016 RMK A01 T00790008  RH  061%=      5-min Rain = 0
KWE2 171433Z 00015KT 08/01 A3016 RMK A01 T00790008  RH  061%=      5-min Rain = 0
KWE2 171434Z 01015KT 08/01 A3016 RMK A01 T00790007  RH  060%=      5-min Rain = 0
KWE2 171435Z 01015KT 08/01 A3016 RMK A01 T00800008  RH  061%=      5-min Rain = 0
KWE2 171436Z 01012KT 08/01 A3016 RMK A01 T00800008  RH  060%=      5-min Rain = 0
KWE2 171437Z 01012KT 08/01 A3016 RMK A01 T00800008  RH  060%=      5-min Rain = 0
KWE2 171438Z 01015KT 08/01 A3016 RMK A01 T00810009  RH  060%=      5-min Rain = 0
KWE2 171439Z 01016KT 08/01 A3016 RMK A01 T00810008  RH  060%=      5-min Rain = 0
KWE2 171440Z 01015KT 08/01 A3016 RMK A01 T00810008  RH  060%=      5-min Rain = 0
KWE2 171441Z 01015KT 08/01 A3017 RMK A01 T00810008  RH  060%=      5-min Rain = 0
KWE2 171442Z 01013KT 08/01 A3017 RMK A01 T00820009  RH  060%=      5-min Rain = 0
KWE2 171443Z 01015KT 08/01 A3017 RMK A01 T00820009  RH  060%=      5-min Rain = 0
KWE2 171444Z 01013KT 08/01 A3017 RMK A01 T00830009  RH  060%=      5-min Rain = 0
KWE2 171445Z 02012KT 08/01 A3017 RMK A01 T00830010  RH  060%=      5-min Rain = 0
KWE2 171446Z 01014KT 08/01 A3017 RMK A01 T00830010  RH  060%=      5-min Rain = 0
KWE2 171447Z 02016KT 08/01 A3017 RMK A01 T00840009  RH  059%=      5-min Rain = 0
KWE2 171448Z 01012KT 08/01 A3017 RMK A01 T00840009  RH  059%=      5-min Rain = 0
KWE2 171449Z 02012KT 08/01 A3017 RMK A01 T00840011  RH  060%=      5-min Rain = 0
KWE2 171450Z 01015KT 09/01 A3017 RMK A01 T00850011  RH  059%=      5-min Rain = 0
KWE2 171451Z 01014KT 09/01 A3017 RMK A01 T00860010  RH  059%=      5-min Rain = 0
KWE2 171452Z 01016KT 09/01 A3017 RMK A01 T00860010  RH  059%=      5-min Rain = 0
KWE2 171453Z 01017KT 09/01 A3017 RMK A01 T00860010  RH  059%=      5-min Rain = 0
KWE2 171454Z 01017KT 09/01 A3017 RMK A01 T00860010  RH  059%=      5-min Rain = 0
KWE2 171455Z 02017KT 09/01 A3017 RMK A01 T00870010  RH  058%=      5-min Rain = 0
KWE2 171456Z 01016KT 09/01 A3017 RMK A01 T00870010  RH  058%=      5-min Rain = 0
KWE2 171457Z 02015KT 09/01 A3017 RMK A01 T00870010  RH  058%=      5-min Rain = 0
KWE2 171458Z 01017KT 09/01 A3017 RMK A01 T00880011  RH  058%=      5-min Rain = 0
KWE2 171459Z 01016G21KT 09/01 A3017 RMK A01 T00890011  RH  058%=      5-min Rain = 0
KWE2 171500Z 01017KT 09/01 A3017 RMK A01 T00890011  RH  058%=      5-min Rain = 0
KWE2 171501Z 02018KT 09/01 A3017 RMK A01 T00900011  RH  058%=      5-min Rain = 0
KWE2 171502Z 02015KT 09/01 A3017 RMK A01 T00900011  RH  058%=      5-min Rain = 0
KWE2 171503Z 01014KT 09/01 A3017 RMK A01 T00900012  RH  058%=      5-min Rain = 0
KWE2 171504Z 01015KT 09/01 A3017 RMK A01 T00910012  RH  058%=      5-min Rain = 0
KWE2 171505Z 01016KT 09/01 A3017 RMK A01 T00910012  RH  057%=      5-min Rain = 0
KWE2 171506Z 01014KT 09/01 A3017 RMK A01 T00920012  RH  057%=      5-min Rain = 0
KWE2 171507Z 01016G21KT 09/01 A3017 RMK A01 T00930013  RH  057%=      5-min Rain = 0
KWE2 171508Z 01016G21KT 09/01 A3017 RMK A01 T00930012  RH  057%=      5-min Rain = 0
KWE2 171509Z 02015KT 09/01 A3017 RMK A01 T00930012  RH  057%=      5-min Rain = 0
KWE2 171510Z 01017KT 09/01 A3017 RMK A01 T00930012  RH  057%=      5-min Rain = 0
KWE2 171511Z 01020KT 09/01 A3017 RMK A01 T00940012  RH  057%=      5-min Rain = 0
KWE2 171512Z 01017KT 09/01 A3017 RMK A01 T00940012  RH  056%=      5-min Rain = 0
KWE2 171513Z 01019KT 09/01 A3017 RMK A01 T00940011  RH  056%=      5-min Rain = 0
KWE2 171514Z 00018KT 09/01 A3017 RMK A01 T00940012  RH  057%=      5-min Rain = 0
KWE2 171515Z 01015KT 09/01 A3017 RMK A01 T00940012  RH  056%=      5-min Rain = 0
KWE2 171516Z 01018KT 10/01 A3017 RMK A01 T00950013  RH  056%=      5-min Rain = 0
KWE2 171517Z 01017KT 10/01 A3017 RMK A01 T00950012  RH  056%=      5-min Rain = 0
KWE2 171518Z 01016KT 10/01 A3017 RMK A01 T00950013  RH  056%=      5-min Rain = 0
KWE2 171519Z 02017KT 10/01 A3017 RMK A01 T00960013  RH  056%=      5-min Rain = 0
KWE2 171520Z 02016KT 10/01 A3017 RMK A01 T00970013  RH  056%=      5-min Rain = 0
KWE2 171521Z 02019KT 10/01 A3017 RMK A01 T00970013  RH  056%=      5-min Rain = 0
KWE2 171522Z 02015G20KT 10/01 A3017 RMK A01 T00980013  RH  055%=      5-min Rain = 0
KWE2 171523Z 02019G24KT 10/01 A3017 RMK A01 T00980013  RH  055%=      5-min Rain = 0
KWE2 171524Z 02019KT 10/01 A3017 RMK A01 T00990012  RH  055%=      5-min Rain = 0
KWE2 171525Z 01018KT 10/01 A3017 RMK A01 T00980012  RH  055%=      5-min Rain = 0
KWE2 171526Z 01018KT 10/01 A3018 RMK A01 T00980013  RH  055%=      5-min Rain = 0
KWE2 171527Z 01017KT 10/01 A3018 RMK A01 T00990014  RH  055%=      5-min Rain = 0
KWE2 171528Z 01018KT 10/01 A3018 RMK A01 T00990014  RH  055%=      5-min Rain = 0
KWE2 171529Z 02015KT 10/01 A3018 RMK A01 T01000014  RH  055%=      5-min Rain = 0
KWE2 171530Z 01016G21KT 10/02 A3018 RMK A01 T01010015  RH  055%=      5-min Rain = 0
KWE2 171531Z 01017KT 10/01 A3018 RMK A01 T01020014  RH  055%=      5-min Rain = 0
KWE2 171532Z 03018KT 10/01 A3018 RMK A01 T01020014  RH  055%=      5-min Rain = 0
KWE2 171533Z 02018G24KT 10/01 A3018 RMK A01 T01020014  RH  054%=      5-min Rain = 0
KWE2 171534Z 01022G27KT 10/01 A3018 RMK A01 T01020014  RH  054%=      5-min Rain = 0
KWE2 171535Z 01022G27KT 10/01 A3018 RMK A01 T01010012  RH  054%=      5-min Rain = 0
KWE2 171536Z 02022KT 10/01 A3018 RMK A01 T01000013  RH  054%=      5-min Rain = 0
KWE2 171537Z 01023G29KT 10/01 A3018 RMK A01 T01000012  RH  054%=      5-min Rain = 0
KWE2 171538Z 02019G24KT 10/01 A3018 RMK A01 T01000013  RH  055%=      5-min Rain = 0
KWE2 171539Z 02020G26KT 10/01 A3018 RMK A01 T01000013  RH  055%=      5-min Rain = 0
KWE2 171540Z 02022G27KT 10/01 A3018 RMK A01 T01010013  RH  054%=      5-min Rain = 0
KWE2 171541Z 02019KT 10/01 A3018 RMK A01 T01010014  RH  054%=      5-min Rain = 0
KWE2 171542Z 02020G25KT 10/01 A3018 RMK A01 T01020014  RH  054%=      5-min Rain = 0
KWE2 171543Z 02020KT 10/01 A3018 RMK A01 T01030014  RH  054%=      5-min Rain = 0
KWE2 171544Z 02022KT 10/01 A3018 RMK A01 T01020013  RH  054%=      5-min Rain = 0
KWE2 171545Z 01019G25KT 10/01 A3018 RMK A01 T01020014  RH  054%=      5-min Rain = 0
KWE2 171546Z 02019G25KT 10/01 A3018 RMK A01 T01020014  RH  054%=      5-min Rain = 0
KWE2 171547Z 03021KT 10/01 A3018 RMK A01 T01030014  RH  054%=      5-min Rain = 0
KWE2 171548Z 02016KT 10/01 A3018 RMK A01 T01030014  RH  054%=      5-min Rain = 0
KWE2 171549Z 02019KT 11/02 A3018 RMK A01 T01050015  RH  054%=      5-min Rain = 0
KWE2 171550Z 02018KT 11/02 A3018 RMK A01 T01050015  RH  054%=      5-min Rain = 0
KWE2 171551Z 03020KT 11/02 A3018 RMK A01 T01050015  RH  054%=      5-min Rain = 0
KWE2 171552Z 02022G29KT 10/01 A3018 RMK A01 T01040014  RH  054%=      5-min Rain = 0
KWE2 171553Z 02021G26KT 10/01 A3018 RMK A01 T01030014  RH  054%=      5-min Rain = 0
KWE2 171554Z 01021G26KT 10/01 A3018 RMK A01 T01030014  RH  054%=      5-min Rain = 0
KWE2 171555Z 02022KT 10/01 A3018 RMK A01 T01030014  RH  054%=      5-min Rain = 0
KWE2 171556Z 02022KT 10/01 A3018 RMK A01 T01030014  RH  054%=      5-min Rain = 0
KWE2 171557Z 02020KT 10/02 A3018 RMK A01 T01040015  RH  054%=      5-min Rain = 0
KWE2 171558Z 02021KT 11/02 A3018 RMK A01 T01050015  RH  054%=      5-min Rain = 0
KWE2 171559Z 02017KT 11/02 A3018 RMK A01 T01050015  RH  054%=      5-min Rain = 0
KWE2 171600Z 02016KT 11/02 A3018 RMK A01 T01060016  RH  054%=      5-min Rain = 0
KWE2 171601Z 02020G25KT 11/02 A3018 RMK A01 T01070016  RH  053%=      5-min Rain = 0
KWE2 171602Z 02019G24KT 11/02 A3018 RMK A01 T01080016  RH  053%=      5-min Rain = 0
KWE2 171603Z 03019KT 11/02 A3018 RMK A01 T01080016  RH  053%=      5-min Rain = 0
KWE2 171604Z 02017G22KT 11/02 A3018 RMK A01 T01070016  RH  053%=      5-min Rain = 0
KWE2 171605Z 03020G25KT 11/02 A3018 RMK A01 T01080016  RH  053%=      5-min Rain = 0
KWE2 171606Z 02020KT 11/02 A3018 RMK A01 T01070015  RH  053%=      5-min Rain = 0
KWE2 171607Z 02018KT 11/02 A3018 RMK A01 T01060015  RH  053%=      5-min Rain = 0
KWE2 171608Z 03017KT 11/02 A3018 RMK A01 T01060016  RH  054%=      5-min Rain = 0
KWE2 171609Z 02018KT 11/02 A3018 RMK A01 T01080017  RH  053%=      5-min Rain = 0
KWE2 171610Z 03021KT 11/02 A3018 RMK A01 T01080016  RH  053%=      5-min Rain = 0
KWE2 171611Z 02018KT 11/02 A3018 RMK A01 T01070016  RH  053%=      5-min Rain = 0
KWE2 171612Z 02019G24KT 11/02 A3018 RMK A01 T01080016  RH  053%=      5-min Rain = 0
KWE2 171613Z 03017G22KT 11/02 A3019 RMK A01 T01080016  RH  053%=      5-min Rain = 0
KWE2 171614Z 02017KT 11/02 A3019 RMK A01 T01080016  RH  053%=      5-min Rain = 0
KWE2 171615Z 03020KT 11/02 A3019 RMK A01 T01090016  RH  053%=      5-min Rain = 0
KWE2 171616Z 03021KT 11/02 A3018 RMK A01 T01090016  RH  053%=      5-min Rain = 0
KWE2 171617Z 03018KT 11/02 A3018 RMK A01 T01080016  RH  053%=      5-min Rain = 0
KWE2 171618Z 03018KT 11/02 A3019 RMK A01 T01090017  RH  053%=      5-min Rain = 0
KWE2 171619Z 03016KT 11/02 A3019 RMK A01 T01090017  RH  053%=      5-min Rain = 0
KWE2 171620Z 02018G23KT 11/02 A3019 RMK A01 T01110018  RH  053%=      5-min Rain = 0
KWE2 171621Z 02019KT 11/02 A3019 RMK A01 T01110017  RH  052%=      5-min Rain = 0
KWE2 171622Z 03016KT 11/02 A3019 RMK A01 T01100017  RH  052%=      5-min Rain = 0
KWE2 171623Z 03016KT 11/02 A3019 RMK A01 T01100017  RH  053%=      5-min Rain = 0
KWE2 171624Z 01018KT 11/02 A3019 RMK A01 T01110017  RH  052%=      5-min Rain = 0
KWE2 171625Z 02019KT 11/02 A3019 RMK A01 T01120016  RH  052%=      5-min Rain = 0
KWE2 171626Z 02016KT 11/02 A3019 RMK A01 T01120017  RH  052%=      5-min Rain = 0
KWE2 171627Z 03017KT 11/02 A3019 RMK A01 T01120016  RH  052%=      5-min Rain = 0
KWE2 171628Z 02014G19KT 11/02 A3019 RMK A01 T01120017  RH  052%=      5-min Rain = 0
KWE2 171629Z 02015G20KT 11/02 A3019 RMK A01 T01120017  RH  052%=      5-min Rain = 0
KWE2 171630Z 02019KT 11/02 A3019 RMK A01 T01130017  RH  051%=      5-min Rain = 0
KWE2 171631Z 02018KT 11/02 A3019 RMK A01 T01130016  RH  051%=      5-min Rain = 0
KWE2 171632Z 02016G22KT 11/02 A3019 RMK A01 T01130017  RH  051%=      5-min Rain = 0
KWE2 171633Z 03017KT 12/02 A3019 RMK A01 T01150018  RH  051%=      5-min Rain = 0
KWE2 171634Z 03017KT 12/02 A3019 RMK A01 T01160018  RH  051%=      5-min Rain = 0
KWE2 171635Z 03016KT 12/02 A3019 RMK A01 T01170018  RH  051%=      5-min Rain = 0
KWE2 171636Z 03018KT 12/02 A3019 RMK A01 T01170017  RH  050%=      5-min Rain = 0
KWE2 171637Z 02017G22KT 12/02 A3019 RMK A01 T01160018  RH  051%=      5-min Rain = 0
KWE2 171638Z 01017KT 12/02 A3019 RMK A01 T01150016  RH  051%=      5-min Rain = 0
KWE2 171639Z 00018KT 11/02 A3019 RMK A01 T01130016  RH  051%=      5-min Rain = 0
KWE2 171640Z 00019KT 11/02 A3019 RMK A01 T01130016  RH  051%=      5-min Rain = 0
KWE2 171641Z 01017G22KT 11/02 A3019 RMK A01 T01140016  RH  051%=      5-min Rain = 0
KWE2 171642Z 01016KT 12/02 A3019 RMK A01 T01150018  RH  051%=      5-min Rain = 0
KWE2 171643Z 01016KT 12/02 A3019 RMK A01 T01180018  RH  050%=      5-min Rain = 0
KWE2 171644Z 02015KT 12/02 A3019 RMK A01 T01180018  RH  050%=      5-min Rain = 0
KWE2 171645Z 01016G21KT 12/02 A3019 RMK A01 T01190018  RH  050%=      5-min Rain = 0
KWE2 171646Z 01017G23KT 12/02 A3019 RMK A01 T01190018  RH  050%=      5-min Rain = 0
KWE2 171647Z 02017KT 12/02 A3019 RMK A01 T01190017  RH  050%=      5-min Rain = 0
KWE2 171648Z 02015KT 12/02 A3019 RMK A01 T01180017  RH  050%=      5-min Rain = 0
KWE2 171649Z 02017KT 12/02 A3019 RMK A01 T01190019  RH  050%=      5-min Rain = 0
KWE2 171650Z 01014KT 12/02 A3019 RMK A01 T01210019  RH  049%=      5-min Rain = 0
KWE2 171651Z 02016KT 12/02 A3019 RMK A01 T01210019  RH  049%=      5-min Rain = 0
KWE2 171652Z 02017KT 12/02 A3019 RMK A01 T01210017  RH  049%=      5-min Rain = 0
KWE2 171653Z 00019KT 12/02 A3019 RMK A01 T01200017  RH  049%=      5-min Rain = 0
KWE2 171654Z 01018KT 12/02 A3019 RMK A01 T01190016  RH  049%=      5-min Rain = 0
KWE2 171655Z 02016KT 12/02 A3019 RMK A01 T01180017  RH  050%=      5-min Rain = 0
KWE2 171656Z 01017KT 12/02 A3019 RMK A01 T01200017  RH  049%=      5-min Rain = 0
KWE2 171657Z 01015KT 12/02 A3019 RMK A01 T01190017  RH  049%=      5-min Rain = 0
KWE2 171658Z 01013KT 12/02 A3019 RMK A01 T01210018  RH  050%=      5-min Rain = 0
KWE2 171659Z 03014KT 12/02 A3019 RMK A01 T01220018  RH  049%=      5-min Rain = 0
KWE2 171700Z 02015KT 12/02 A3019 RMK A01 T01210017  RH  049%=      5-min Rain = 0
KWE2 171701Z 02014KT 12/02 A3019 RMK A01 T01200018  RH  049%=      5-min Rain = 0
KWE2 171702Z 02015KT 12/02 A3019 RMK A01 T01200018  RH  049%=      5-min Rain = 0
KWE2 171703Z 01017KT 12/02 A3019 RMK A01 T01200017  RH  049%=      5-min Rain = 0
KWE2 171704Z 03013KT 12/02 A3019 RMK A01 T01200018  RH  049%=      5-min Rain = 0
KWE2 171705Z 03015KT 12/02 A3019 RMK A01 T01230018  RH  049%=      5-min Rain = 0
KWE2 171706Z 02012KT 12/02 A3019 RMK A01 T01220017  RH  048%=      5-min Rain = 0
KWE2 171707Z 02015KT 12/02 A3019 RMK A01 T01220017  RH  049%=      5-min Rain = 0
KWE2 171708Z 01013KT 12/02 A3019 RMK A01 T01230019  RH  049%=      5-min Rain = 0
KWE2 171709Z 02013KT 13/02 A3019 RMK A01 T01250019  RH  049%=      5-min Rain = 0
KWE2 171710Z 02013KT 13/02 A3019 RMK A01 T01250019  RH  048%=      5-min Rain = 0
KWE2 171711Z 02011KT 13/02 A3019 RMK A01 T01250018  RH  048%=      5-min Rain = 0
KWE2 171712Z 01012KT 12/02 A3019 RMK A01 T01240019  RH  049%=      5-min Rain = 0
KWE2 171713Z 01013KT 13/02 A3019 RMK A01 T01260020  RH  048%=      5-min Rain = 0
KWE2 171714Z 01012KT 13/02 A3019 RMK A01 T01270019  RH  048%=      5-min Rain = 0
KWE2 171715Z 01013KT 13/02 A3018 RMK A01 T01270019  RH  048%=      5-min Rain = 0
KWE2 171716Z 01014KT 13/02 A3018 RMK A01 T01260018  RH  048%=      5-min Rain = 0
KWE2 171717Z 01015KT 13/02 A3018 RMK A01 T01260019  RH  048%=      5-min Rain = 0
KWE2 171718Z 01014KT 13/02 A3018 RMK A01 T01250017  RH  048%=      5-min Rain = 0
KWE2 171719Z 02014KT 12/02 A3019 RMK A01 T01230018  RH  048%=      5-min Rain = 0
KWE2 171720Z 03012KT 13/02 A3019 RMK A01 T01250019  RH  048%=      5-min Rain = 0
KWE2 171721Z 02012KT 13/02 A3018 RMK A01 T01270019  RH  048%=      5-min Rain = 0
KWE2 171722Z 01013G18KT 13/02 A3018 RMK A01 T01280018  RH  047%=      5-min Rain = 0
KWE2 171723Z 02014KT 13/02 A3018 RMK A01 T01280019  RH  047%=      5-min Rain = 0
KWE2 171724Z 02014KT 13/02 A3018 RMK A01 T01280019  RH  047%=      5-min Rain = 0
KWE2 171725Z 02016KT 13/02 A3018 RMK A01 T01280017  RH  047%=      5-min Rain = 0
KWE2 171726Z 02017KT 13/02 A3018 RMK A01 T01260016  RH  047%=      5-min Rain = 0
KWE2 171727Z 02014KT 13/02 A3018 RMK A01 T01250017  RH  048%=      5-min Rain = 0
KWE2 171728Z 03011KT 13/02 A3018 RMK A01 T01250018  RH  048%=      5-min Rain = 0
KWE2 171729Z 04012KT 13/02 A3018 RMK A01 T01260018  RH  048%=      5-min Rain = 0
KWE2 171730Z 04015KT 13/02 A3018 RMK A01 T01270018  RH  048%=      5-min Rain = 0
KWE2 171731Z 03011G16KT 13/02 A3018 RMK A01 T01280018  RH  047%=      5-min Rain = 0
KWE2 171732Z 04011KT 13/02 A3018 RMK A01 T01300020  RH  047%=      5-min Rain = 0
KWE2 171733Z 03014KT 13/02 A3017 RMK A01 T01300018  RH  046%=      5-min Rain = 0
KWE2 171734Z 01014KT 13/02 A3018 RMK A01 T01310020  RH  047%=      5-min Rain = 0
KWE2 171735Z 02013KT 13/02 A3018 RMK A01 T01310019  RH  046%=      5-min Rain = 0
KWE2 171736Z 02012KT 13/02 A3018 RMK A01 T01320019  RH  046%=      5-min Rain = 0
KWE2 171737Z 03012G17KT 13/02 A3018 RMK A01 T01320019  RH  046%=      5-min Rain = 0
KWE2 171738Z 03015KT 13/02 A3018 RMK A01 T01320019  RH  046%=      5-min Rain = 0
KWE2 171739Z 02011KT 13/02 A3018 RMK A01 T01320019  RH  046%=      5-min Rain = 0
KWE2 171740Z 02012G18KT 13/02 A3018 RMK A01 T01330020  RH  046%=      5-min Rain = 0
KWE2 171741Z 02011KT 14/02 A3018 RMK A01 T01350021  RH  046%=      5-min Rain = 0
KWE2 171742Z 02013KT 14/02 A3018 RMK A01 T01360020  RH  045%=      5-min Rain = 0
KWE2 171743Z 02014KT 13/02 A3018 RMK A01 T01330019  RH  046%=      5-min Rain = 0
KWE2 171744Z 01013KT 13/02 A3018 RMK A01 T01310019  RH  046%=      5-min Rain = 0
KWE2 171745Z 00014G19KT 13/02 A3018 RMK A01 T01320019  RH  046%=      5-min Rain = 0
KWE2 171746Z 02014KT 13/02 A3018 RMK A01 T01340019  RH  046%=      5-min Rain = 0
KWE2 171747Z 01014KT 13/02 A3018 RMK A01 T01340019  RH  046%=      5-min Rain = 0
KWE2 171748Z 01015KT 14/02 A3018 RMK A01 T01350020  RH  045%=      5-min Rain = 0
KWE2 171749Z 01012KT 14/02 A3018 RMK A01 T01350019  RH  045%=      5-min Rain = 0
KWE2 171750Z 01011KT 14/02 A3018 RMK A01 T01350020  RH  046%=      5-min Rain = 0
KWE2 171751Z 02010KT 14/02 A3018 RMK A01 T01360019  RH  045%=      5-min Rain = 0
KWE2 171752Z 02013KT 14/02 A3018 RMK A01 T01360020  RH  045%=      5-min Rain = 0
KWE2 171753Z 00014KT 14/02 A3017 RMK A01 T01380020  RH  045%=      5-min Rain = 0
KWE2 171754Z 02017KT 14/02 A3017 RMK A01 T01380019  RH  045%=      5-min Rain = 0
KWE2 171755Z 02015KT 14/02 A3017 RMK A01 T01360018  RH  045%=      5-min Rain = 0
KWE2 171756Z 02015KT 13/02 A3017 RMK A01 T01340017  RH  045%=      5-min Rain = 0
KWE2 171757Z 03012KT 13/02 A3017 RMK A01 T01340019  RH  046%=      5-min Rain = 0
KWE2 171758Z 03013KT 14/02 A3017 RMK A01 T01370020  RH  045%=      5-min Rain = 0
KWE2 171759Z 03014G19KT 14/02 A3017 RMK A01 T01360019  RH  045%=      5-min Rain = 0
KWE2 171800Z 04013KT 14/02 A3017 RMK A01 T01370019  RH  045%=      5-min Rain = 0
KWE2 171801Z 03013KT 14/02 A3017 RMK A01 T01360019  RH  045%=      5-min Rain = 0
KWE2 171802Z 03013KT 14/02 A3017 RMK A01 T01360018  RH  045%=      5-min Rain = 0
KWE2 171803Z 03013KT 14/02 A3017 RMK A01 T01350019  RH  045%=      5-min Rain = 0
KWE2 171804Z 03011KT 14/02 A3017 RMK A01 T01350019  RH  045%=      5-min Rain = 0
KWE2 171805Z 00012KT 14/02 A3017 RMK A01 T01370019  RH  045%=      5-min Rain = 0
KWE2 171806Z 01010KT 14/02 A3017 RMK A01 T01350018  RH  045%=      5-min Rain = 0
KWE2 171807Z 03011KT 14/02 A3017 RMK A01 T01350019  RH  045%=      5-min Rain = 0
KWE2 171808Z 02012KT 14/02 A3017 RMK A01 T01360019  RH  045%=      5-min Rain = 0
KWE2 171809Z 03010KT 14/02 A3017 RMK A01 T01360019  RH  045%=      5-min Rain = 0
KWE2 171810Z 03014KT 14/02 A3017 RMK A01 T01380021  RH  045%=      5-min Rain = 0
KWE2 171811Z 03013KT 14/02 A3017 RMK A01 T01400019  RH  044%=      5-min Rain = 0
KWE2 171812Z 03010KT 14/02 A3017 RMK A01 T01400019  RH  044%=      5-min Rain = 0
KWE2 171813Z 03012KT 14/02 A3017 RMK A01 T01410019  RH  043%=      5-min Rain = 0
KWE2 171814Z 03012KT 14/02 A3017 RMK A01 T01410019  RH  044%=      5-min Rain = 0
KWE2 171815Z 01011KT 14/02 A3017 RMK A01 T01410019  RH  043%=      5-min Rain = 0
KWE2 171816Z 01009KT 14/02 A3017 RMK A01 T01400019  RH  044%=      5-min Rain = 0
KWE2 171817Z 02009KT 14/02 A3017 RMK A01 T01410021  RH  044%=      5-min Rain = 0
KWE2 171818Z 02013KT 14/02 A3017 RMK A01 T01420020  RH  044%=      5-min Rain = 0
KWE2 171819Z 00012KT 14/02 A3017 RMK A01 T01430020  RH  043%=      5-min Rain = 0
KWE2 171820Z 35012KT 14/02 A3017 RMK A01 T01420019  RH  043%=      5-min Rain = 0
KWE2 171821Z 03009KT 14/02 A3017 RMK A01 T01400019  RH  044%=      5-min Rain = 0
KWE2 171822Z 03009KT 14/02 A3016 RMK A01 T01400020  RH  044%=      5-min Rain = 0
KWE2 171823Z 01012KT 14/02 A3016 RMK A01 T01430022  RH  044%=      5-min Rain = 0
KWE2 171824Z 01012KT 14/02 A3016 RMK A01 T01440020  RH  043%=      5-min Rain = 0
KWE2 171825Z 00013KT 15/02 A3016 RMK A01 T01450021  RH  043%=      5-min Rain = 0
KWE2 171826Z 01009KT 14/02 A3016 RMK A01 T01420018  RH  043%=      5-min Rain = 0
KWE2 171827Z 02008KT 14/02 A3016 RMK A01 T01410020  RH  044%=      5-min Rain = 0
KWE2 171828Z 01009KT 14/02 A3016 RMK A01 T01410020  RH  044%=      5-min Rain = 0
KWE2 171829Z 02010KT 14/02 A3016 RMK A01 T01410019  RH  044%=      5-min Rain = 0
KWE2 171830Z 01009KT 14/02 A3016 RMK A01 T01420021  RH  044%=      5-min Rain = 0
KWE2 171831Z 01009KT 15/02 A3016 RMK A01 T01460022  RH  043%=      5-min Rain = 0
KWE2 171832Z 01009KT 15/02 A3016 RMK A01 T01460020  RH  043%=      5-min Rain = 0
KWE2 171833Z 01008KT 15/02 A3016 RMK A01 T01450020  RH  043%=      5-min Rain = 0
KWE2 171834Z 04009KT 15/02 A3016 RMK A01 T01450021  RH  043%=      5-min Rain = 0
KWE2 171835Z 03010KT 15/02 A3016 RMK A01 T01470020  RH  042%=      5-min Rain = 0
KWE2 171836Z 04011KT 15/02 A3016 RMK A01 T01460019  RH  042%=      5-min Rain = 0
KWE2 171837Z 03010KT 15/02 A3016 RMK A01 T01460020  RH  042%=      5-min Rain = 0
KWE2 171838Z 04009KT 15/02 A3016 RMK A01 T01490022  RH  042%=      5-min Rain = 0
KWE2 171839Z 04010KT 15/02 A3015 RMK A01 T01510021  RH  041%=      5-min Rain = 0
KWE2 171840Z 02011KT 15/02 A3015 RMK A01 T01510021  RH  041%=      5-min Rain = 0
KWE2 171841Z 02008KT 15/02 A3015 RMK A01 T01480018  RH  041%=      5-min Rain = 0
KWE2 171842Z 02009KT 15/02 A3015 RMK A01 T01450019  RH  042%=      5-min Rain = 0
KWE2 171843Z 02009KT 15/02 A3015 RMK A01 T01450019  RH  042%=      5-min Rain = 0
KWE2 171844Z 03012KT 15/02 A3015 RMK A01 T01450020  RH  043%=      5-min Rain = 0
KWE2 171845Z 02010KT 15/02 A3015 RMK A01 T01460019  RH  042%=      5-min Rain = 0
KWE2 171846Z 03008KT 15/02 A3015 RMK A01 T01450019  RH  042%=      5-min Rain = 0
KWE2 171847Z 01006KT 15/02 A3015 RMK A01 T01450020  RH  043%=      5-min Rain = 0
KWE2 171848Z 01007KT 15/02 A3015 RMK A01 T01450020  RH  043%=      5-min Rain = 0
KWE2 171849Z 01011KT 15/02 A3015 RMK A01 T01470020  RH  042%=      5-min Rain = 0
KWE2 171850Z 01009KT 15/02 A3015 RMK A01 T01470020  RH  042%=      5-min Rain = 0
KWE2 171851Z 01007KT 15/02 A3015 RMK A01 T01460019  RH  042%=      5-min Rain = 0
KWE2 171852Z 35008KT 15/02 A3015 RMK A01 T01460020  RH  043%=      5-min Rain = 0
KWE2 171853Z 03007KT 15/02 A3015 RMK A01 T01480021  RH  042%=      5-min Rain = 0
KWE2 171854Z 03009KT 15/02 A3015 RMK A01 T01510020  RH  041%=      5-min Rain = 0
KWE2 171855Z 03009KT 15/02 A3015 RMK A01 T01510019  RH  041%=      5-min Rain = 0
KWE2 171856Z 04009KT 15/02 A3015 RMK A01 T01500019  RH  041%=      5-min Rain = 0
KWE2 171857Z 01008KT 15/02 A3015 RMK A01 T01490020  RH  041%=      5-min Rain = 0
KWE2 171858Z 00010KT 15/02 A3015 RMK A01 T01510021  RH  041%=      5-min Rain = 0
KWE2 171859Z 03008KT 15/02 A3015 RMK A01 T01520021  RH  041%=      5-min Rain = 0
KWE2 171900Z 03009KT 15/02 A3015 RMK A01 T01530020  RH  041%=      5-min Rain = 0
KWE2 171901Z 03006KT 15/02 A3015 RMK A01 T01520019  RH  041%=      5-min Rain = 0
KWE2 171902Z 02005KT 15/02 A3015 RMK A01 T01510020  RH  041%=      5-min Rain = 0
KWE2 171903Z 01008G15KT 15/02 A3015 RMK A01 T01510022  RH  042%=      5-min Rain = 0
KWE2 171904Z 03011G17KT 15/02 A3015 RMK A01 T01540019  RH  040%=      5-min Rain = 0
KWE2 171905Z 03009KT 15/02 A3015 RMK A01 T01520017  RH  040%=      5-min Rain = 0
KWE2 171906Z 03007KT 15/02 A3015 RMK A01 T01500018  RH  041%=      5-min Rain = 0
KWE2 171907Z 03009KT 15/02 A3015 RMK A01 T01510019  RH  041%=      5-min Rain = 0
KWE2 171908Z 01011KT 15/02 A3015 RMK A01 T01520020  RH  041%=      5-min Rain = 0
KWE2 171909Z 35008KT 15/02 A3015 RMK A01 T01540020  RH  040%=      5-min Rain = 0
KWE2 171910Z 36005KT 15/02 A3014 RMK A01 T01520019  RH  041%=      5-min Rain = 0
KWE2 171911Z 35007G12KT 15/02 A3014 RMK A01 T01510020  RH  041%=      5-min Rain = 0
KWE2 171912Z 02012KT 15/02 A3014 RMK A01 T01530019  RH  040%=      5-min Rain = 0
KWE2 171913Z 01011KT 15/02 A3014 RMK A01 T01530019  RH  040%=      5-min Rain = 0
KWE2 171914Z 01011KT 16/02 A3014 RMK A01 T01550019  RH  040%=      5-min Rain = 0
KWE2 171915Z 01009KT 16/02 A3014 RMK A01 T01550019  RH  040%=      5-min Rain = 0
KWE2 171916Z 01009KT 15/02 A3014 RMK A01 T01540018  RH  040%=      5-min Rain = 0
KWE2 171917Z 01008KT 15/02 A3014 RMK A01 T01530018  RH  040%=      5-min Rain = 0
KWE2 171918Z 01006KT 15/02 A3014 RMK A01 T01520018  RH  040%=      5-min Rain = 0
KWE2 171919Z 00005KT 15/02 A3014 RMK A01 T01510017  RH  040%=      5-min Rain = 0
KWE2 171920Z 01006KT 15/02 A3014 RMK A01 T01510018  RH  041%=      5-min Rain = 0
KWE2 171921Z 02007KT 15/02 A3014 RMK A01 T01510019  RH  041%=      5-min Rain = 0
KWE2 171922Z 01011KT 15/02 A3014 RMK A01 T01540021  RH  041%=      5-min Rain = 0
KWE2 171923Z 00009KT 16/02 A3014 RMK A01 T01560020  RH  040%=      5-min Rain = 0
KWE2 171924Z 01006KT 16/02 A3014 RMK A01 T01570020  RH  040%=      5-min Rain = 0
KWE2 171925Z 36005KT 16/02 A3014 RMK A01 T01560020  RH  040%=      5-min Rain = 0
KWE2 171926Z 00005KT 16/02 A3014 RMK A01 T01550019  RH  040%=      5-min Rain = 0
KWE2 171927Z 00006KT 16/02 A3014 RMK A01 T01550021  RH  040%=      5-min Rain = 0
KWE2 171928Z 01011KT 16/02 A3014 RMK A01 T01590021  RH  040%=      5-min Rain = 0
KWE2 171929Z 02008KT 16/02 A3014 RMK A01 T01630021  RH  039%=      5-min Rain = 0
KWE2 171930Z 02007KT 16/02 A3014 RMK A01 T01630020  RH  038%=      5-min Rain = 0
KWE2 171931Z 01004KT 16/02 A3013 RMK A01 T01610019  RH  038%=      5-min Rain = 0
KWE2 171932Z 03007KT 16/02 A3013 RMK A01 T01630022  RH  039%=      5-min Rain = 0
KWE2 171933Z 03009KT 16/02 A3013 RMK A01 T01630020  RH  038%=      5-min Rain = 0
KWE2 171934Z 01008KT 16/02 A3013 RMK A01 T01620020  RH  038%=      5-min Rain = 0
KWE2 171935Z 01009KT 16/02 A3013 RMK A01 T01630022  RH  039%=      5-min Rain = 0
KWE2 171936Z 02008KT 16/02 A3013 RMK A01 T01620019  RH  038%=      5-min Rain = 0
KWE2 171937Z 03006KT 16/02 A3013 RMK A01 T01600020  RH  039%=      5-min Rain = 0
KWE2 171938Z 36006KT 16/02 A3013 RMK A01 T01590020  RH  039%=      5-min Rain = 0
KWE2 171939Z 34006KT 16/02 A3013 RMK A01 T01590020  RH  039%=      5-min Rain = 0
KWE2 171940Z 35008KT 16/02 A3013 RMK A01 T01600020  RH  039%=      5-min Rain = 0
KWE2 171941Z 01006KT 16/02 A3013 RMK A01 T01600021  RH  039%=      5-min Rain = 0
KWE2 171942Z 03006KT 16/02 A3013 RMK A01 T01600020  RH  039%=      5-min Rain = 0
KWE2 171943Z 03009KT 16/02 A3013 RMK A01 T01610020  RH  039%=      5-min Rain = 0
KWE2 171944Z 03008KT 16/02 A3013 RMK A01 T01630018  RH  038%=      5-min Rain = 0
KWE2 171945Z 04005KT 16/02 A3013 RMK A01 T01610016  RH  038%=      5-min Rain = 0
KWE2 171946Z 03004KT 16/02 A3013 RMK A01 T01590017  RH  038%=      5-min Rain = 0
KWE2 171947Z 04009KT 16/02 A3013 RMK A01 T01600019  RH  038%=      5-min Rain = 0
KWE2 171948Z 05008KT 16/02 A3013 RMK A01 T01620019  RH  038%=      5-min Rain = 0
KWE2 171949Z 05007KT 16/02 A3013 RMK A01 T01640018  RH  037%=      5-min Rain = 0
KWE2 171950Z 04008KT 16/02 A3013 RMK A01 T01630019  RH  038%=      5-min Rain = 0
KWE2 171951Z 03009KT 17/02 A3013 RMK A01 T01650018  RH  037%=      5-min Rain = 0
KWE2 171952Z 02007KT 17/02 A3013 RMK A01 T01650016  RH  037%=      5-min Rain = 0
KWE2 171953Z 02006KT 16/02 A3013 RMK A01 T01630017  RH  037%=      5-min Rain = 0
KWE2 171954Z 00006KT 16/02 A3013 RMK A01 T01630017  RH  037%=      5-min Rain = 0
KWE2 171955Z 01011KT 16/02 A3013 RMK A01 T01630018  RH  037%=      5-min Rain = 0
KWE2 171956Z 03010KT 17/02 A3013 RMK A01 T01650017  RH  037%=      5-min Rain = 0
KWE2 171957Z 03012KT 17/02 A3013 RMK A01 T01660017  RH  037%=      5-min Rain = 0
KWE2 171958Z 03009KT 17/02 A3013 RMK A01 T01650016  RH  037%=      5-min Rain = 0
KWE2 171959Z 03008KT 16/02 A3013 RMK A01 T01640016  RH  037%=      5-min Rain = 0
KWE2 172000Z 02006KT 16/02 A3013 RMK A01 T01630016  RH  037%=      5-min Rain = 0
KWE2 172001Z 03010KT 16/02 A3013 RMK A01 T01620017  RH  037%=      5-min Rain = 0
KWE2 172002Z 04009KT 16/02 A3013 RMK A01 T01630017  RH  037%=      5-min Rain = 0
KWE2 172003Z 04009KT 16/02 A3012 RMK A01 T01640017  RH  037%=      5-min Rain = 0
KWE2 172004Z 04009KT 16/02 A3012 RMK A01 T01640017  RH  037%=      5-min Rain = 0
KWE2 172005Z 03009KT 17/02 A3012 RMK A01 T01650018  RH  037%=      5-min Rain = 0
KWE2 172006Z 00009KT 17/02 A3012 RMK A01 T01650018  RH  037%=      5-min Rain = 0
KWE2 172007Z 01007KT 16/02 A3012 RMK A01 T01640017  RH  037%=      5-min Rain = 0
KWE2 172008Z 02008KT 16/02 A3012 RMK A01 T01640017  RH  037%=      5-min Rain = 0
KWE2 172009Z 01010KT 16/01 A3012 RMK A01 T01640014  RH  036%=      5-min Rain = 0
KWE2 172010Z 03010KT 16/02 A3012 RMK A01 T01640015  RH  036%=      5-min Rain = 0
KWE2 172011Z 03009KT 17/02 A3012 RMK A01 T01650016  RH  037%=      5-min Rain = 0
KWE2 172012Z 01009KT 17/02 A3012 RMK A01 T01650017  RH  037%=      5-min Rain = 0
KWE2 172013Z 00009KT 17/02 A3012 RMK A01 T01650016  RH  037%=      5-min Rain = 0
KWE2 172014Z 02011KT 17/02 A3012 RMK A01 T01660016  RH  036%=      5-min Rain = 0
KWE2 172015Z 03007KT 17/02 A3012 RMK A01 T01660015  RH  036%=      5-min Rain = 0
KWE2 172016Z 02007KT 17/02 A3013 RMK A01 T01650016  RH  037%=      5-min Rain = 0
KWE2 172017Z 02009KT 17/02 A3013 RMK A01 T01660017  RH  037%=      5-min Rain = 0
KWE2 172018Z 04008KT 17/02 A3013 RMK A01 T01680016  RH  036%=      5-min Rain = 0
KWE2 172019Z 04006KT 17/01 A3013 RMK A01 T01660014  RH  036%=      5-min Rain = 0
KWE2 172020Z 05007KT 17/02 A3012 RMK A01 T01660016  RH  036%=      5-min Rain = 0
KWE2 172021Z 05011KT 17/02 A3012 RMK A01 T01670017  RH  036%=      5-min Rain = 0
KWE2 172022Z 04009KT 17/02 A3012 RMK A01 T01680018  RH  036%=      5-min Rain = 0
KWE2 172023Z 04007KT 17/02 A3012 RMK A01 T01670017  RH  037%=      5-min Rain = 0
KWE2 172024Z 00007KT 17/02 A3012 RMK A01 T01670017  RH  037%=      5-min Rain = 0
KWE2 172025Z 01008KT 17/02 A3012 RMK A01 T01670018  RH  037%=      5-min Rain = 0
KWE2 172026Z 03009KT 17/02 A3012 RMK A01 T01690019  RH  036%=      5-min Rain = 0
KWE2 172027Z 01010KT 17/02 A3012 RMK A01 T01700018  RH  036%=      5-min Rain = 0
KWE2 172028Z 35008KT 17/02 A3012 RMK A01 T01690016  RH  036%=      5-min Rain = 0
KWE2 172029Z 00006KT 17/02 A3012 RMK A01 T01660015  RH  036%=      5-min Rain = 0
KWE2 172030Z 01006KT 17/02 A3012 RMK A01 T01660017  RH  037%=      5-min Rain = 0
KWE2 172031Z 01007KT 17/02 A3012 RMK A01 T01680017  RH  036%=      5-min Rain = 0
KWE2 172032Z 02007KT 17/02 A3012 RMK A01 T01690018  RH  036%=      5-min Rain = 0
KWE2 172033Z 01010KT 17/02 A3012 RMK A01 T01690018  RH  036%=      5-min Rain = 0
KWE2 172034Z 02010KT 17/02 A3012 RMK A01 T01700018  RH  036%=      5-min Rain = 0
KWE2 172035Z 01009KT 17/02 A3012 RMK A01 T01710017  RH  035%=      5-min Rain = 0
KWE2 172036Z 03009KT 17/02 A3012 RMK A01 T01700016  RH  035%=      5-min Rain = 0
KWE2 172037Z 04006KT 17/02 A3012 RMK A01 T01680015  RH  036%=      5-min Rain = 0
KWE2 172038Z 03008KT 17/02 A3012 RMK A01 T01670016  RH  036%=      5-min Rain = 0
KWE2 172039Z 02011KT 17/02 A3012 RMK A01 T01680017  RH  036%=      5-min Rain = 0
KWE2 172040Z 03010KT 17/02 A3012 RMK A01 T01690017  RH  036%=      5-min Rain = 0
KWE2 172041Z 03010KT 17/02 A3012 RMK A01 T01680016  RH  036%=      5-min Rain = 0
KWE2 172042Z 02007KT 17/02 A3012 RMK A01 T01670016  RH  036%=      5-min Rain = 0
KWE2 172043Z 02009KT 17/02 A3012 RMK A01 T01670017  RH  036%=      5-min Rain = 0
KWE2 172044Z 04008KT 17/02 A3012 RMK A01 T01690015  RH  035%=      5-min Rain = 0
KWE2 172045Z 04006KT 17/02 A3012 RMK A01 T01690015  RH  036%=      5-min Rain = 0
KWE2 172046Z 05010KT 17/02 A3011 RMK A01 T01690016  RH  036%=      5-min Rain = 0
KWE2 172047Z 05011KT 17/02 A3011 RMK A01 T01710018  RH  036%=      5-min Rain = 0
KWE2 172048Z 03010KT 17/02 A3012 RMK A01 T01710016  RH  035%=      5-min Rain = 0
KWE2 172049Z 03008KT 17/02 A3012 RMK A01 T01690015  RH  035%=      5-min Rain = 0
KWE2 172050Z 03006KT 17/02 A3011 RMK A01 T01690016  RH  036%=      5-min Rain = 0
KWE2 172051Z 03008KT 17/02 A3011 RMK A01 T01680015  RH  035%=      5-min Rain = 0
KWE2 172052Z 03009KT 17/02 A3011 RMK A01 T01700015  RH  035%=      5-min Rain = 0
KWE2 172053Z 03007KT 17/01 A3011 RMK A01 T01700013  RH  035%=      5-min Rain = 0
KWE2 172054Z 04007KT 17/02 A3011 RMK A01 T01710016  RH  035%=      5-min Rain = 0
KWE2 172055Z 04010KT 17/02 A3011 RMK A01 T01730016  RH  035%=      5-min Rain = 0
KWE2 172056Z 05006KT 17/02 A3011 RMK A01 T01730017  RH  035%=      5-min Rain = 0
KWE2 172057Z 04009KT 17/02 A3011 RMK A01 T01740017  RH  035%=      5-min Rain = 0
KWE2 172058Z 04012KT 17/02 A3011 RMK A01 T01740018  RH  035%=      5-min Rain = 0
KWE2 172059Z 03012KT 17/02 A3011 RMK A01 T01720016  RH  035%=      5-min Rain = 0
KWE2 172100Z 03009KT 17/02 A3011 RMK A01 T01700015  RH  035%=      5-min Rain = 0
KWE2 172101Z 02008KT 17/02 A3011 RMK A01 T01690016  RH  036%=      5-min Rain = 0
KWE2 172102Z 02011KT 17/02 A3011 RMK A01 T01690017  RH  036%=      5-min Rain = 0
KWE2 172103Z 03010KT 17/01 A3011 RMK A01 T01700013  RH  035%=      5-min Rain = 0
KWE2 172104Z 05007KT 17/01 A3011 RMK A01 T01690012  RH  035%=      5-min Rain = 0
KWE2 172105Z 03009KT 17/01 A3011 RMK A01 T01680012  RH  035%=      5-min Rain = 0
KWE2 172106Z 02012KT 17/01 A3011 RMK A01 T01680013  RH  035%=      5-min Rain = 0
KWE2 172107Z 04012KT 17/01 A3011 RMK A01 T01700014  RH  035%=      5-min Rain = 0
KWE2 172108Z 05011KT 17/01 A3011 RMK A01 T01710012  RH  034%=      5-min Rain = 0
KWE2 172109Z 06010KT 17/01 A3011 RMK A01 T01710013  RH  034%=      5-min Rain = 0
KWE2 172110Z 06009KT 17/01 A3011 RMK A01 T01700013  RH  035%=      5-min Rain = 0
KWE2 172111Z 04010KT 17/02 A3011 RMK A01 T01690015  RH  035%=      5-min Rain = 0
KWE2 172112Z 03012KT 17/02 A3011 RMK A01 T01690015  RH  035%=      5-min Rain = 0
KWE2 172113Z 03012KT 17/01 A3011 RMK A01 T01700013  RH  035%=      5-min Rain = 0
KWE2 172114Z 03010KT 17/01 A3011 RMK A01 T01690014  RH  035%=      5-min Rain = 0
KWE2 172115Z 05009KT 17/02 A3011 RMK A01 T01690015  RH  035%=      5-min Rain = 0
KWE2 172116Z 04007KT 17/02 A3011 RMK A01 T01700015  RH  035%=      5-min Rain = 0
KWE2 172117Z 03007KT 17/02 A3011 RMK A01 T01700016  RH  035%=      5-min Rain = 0
KWE2 172118Z 02008KT 17/02 A3011 RMK A01 T01700017  RH  035%=      5-min Rain = 0
KWE2 172119Z 02009KT 17/02 A3011 RMK A01 T01700015  RH  035%=      5-min Rain = 0
KWE2 172120Z 03009KT 17/02 A3011 RMK A01 T01680016  RH  036%=      5-min Rain = 0
KWE2 172121Z 03010KT 17/02 A3011 RMK A01 T01680016  RH  036%=      5-min Rain = 0
KWE2 172122Z 03007KT 17/02 A3011 RMK A01 T01670015  RH  036%=      5-min Rain = 0
KWE2 172123Z 02006KT 17/02 A3011 RMK A01 T01670015  RH  036%=      5-min Rain = 0
KWE2 172124Z 03006KT 17/02 A3011 RMK A01 T01670015  RH  036%=      5-min Rain = 0
KWE2 172125Z 02006KT 17/02 A3011 RMK A01 T01660016  RH  036%=      5-min Rain = 0
KWE2 172126Z 01008KT 17/02 A3011 RMK A01 T01690018  RH  036%=      5-min Rain = 0
KWE2 172127Z 00009KT 17/02 A3011 RMK A01 T01700015  RH  035%=      5-min Rain = 0
KWE2 172128Z 00008KT 17/01 A3011 RMK A01 T01700014  RH  035%=      5-min Rain = 0
KWE2 172129Z 01008KT 17/01 A3011 RMK A01 T01690014  RH  035%=      5-min Rain = 0
KWE2 172130Z 02006KT 17/01 A3011 RMK A01 T01670013  RH  035%=      5-min Rain = 0
KWE2 172131Z 03006KT 17/01 A3011 RMK A01 T01660014  RH  036%=      5-min Rain = 0
KWE2 172132Z 02006KT 17/02 A3011 RMK A01 T01670015  RH  036%=      5-min Rain = 0
KWE2 172133Z 01008KT 17/02 A3011 RMK A01 T01700017  RH  036%=      5-min Rain = 0
KWE2 172134Z 01008KT 17/02 A3011 RMK A01 T01700016  RH  035%=      5-min Rain = 0
KWE2 172135Z 01009KT 17/02 A3011 RMK A01 T01700017  RH  036%=      5-min Rain = 0
KWE2 172136Z 00011KT 17/02 A3011 RMK A01 T01700016  RH  036%=      5-min Rain = 0
KWE2 172137Z 01010KT 17/02 A3011 RMK A01 T01680016  RH  036%=      5-min Rain = 0
KWE2 172138Z 02007KT 17/02 A3011 RMK A01 T01670016  RH  036%=      5-min Rain = 0
KWE2 172139Z 02006KT 17/02 A3011 RMK A01 T01670016  RH  036%=      5-min Rain = 0
KWE2 172140Z 03005KT 17/02 A3011 RMK A01 T01670016  RH  036%=      5-min Rain = 0
KWE2 172141Z 03007KT 17/02 A3011 RMK A01 T01670016  RH  036%=      5-min Rain = 0
KWE2 172142Z 06006KT 17/02 A3011 RMK A01 T01680016  RH  036%=      5-min Rain = 0
KWE2 172143Z 05006KT 17/02 A3011 RMK A01 T01670015  RH  036%=      5-min Rain = 0
KWE2 172144Z 02007KT 17/02 A3011 RMK A01 T01670016  RH  036%=      5-min Rain = 0
KWE2 172145Z 02008KT 17/02 A3011 RMK A01 T01670015  RH  036%=      5-min Rain = 0
KWE2 172146Z 02009KT 17/02 A3011 RMK A01 T01670015  RH  036%=      5-min Rain = 0
KWE2 172147Z 03010KT 17/01 A3011 RMK A01 T01670014  RH  036%=      5-min Rain = 0
KWE2 172148Z 02009KT 17/01 A301 RMK A01 T01670014  RH  036%=      5-min Rain = 0
KWE2 172149Z 03008KT 17/01 A3011 RMK A01 T01660014  RH  036%=      5-min Rain = 0
KWE2 172150Z 02009KT 17/01 A301 RMK A01 T01670013  RH  036%=      5-min Rain = 0
KWE2 172151Z 02009KT 17/01 A301 RMK A01 T01660013  RH  036%=      5-min Rain = 0
KWE2 172152Z 02009KT 17/01 A301 RMK A01 T01660014  RH  036%=      5-min Rain = 0
KWE2 172153Z 03010KT 17/01 A301 RMK A01 T01650014  RH  036%=      5-min Rain = 0
KWE2 172154Z 03009KT 17/02 A3011 RMK A01 T01650015  RH  036%=      5-min Rain = 0
KWE2 172155Z 03006KT 16/02 A3011 RMK A01 T01640015  RH  037%=      5-min Rain = 0
KWE2 172156Z 03005KT 16/02 A3011 RMK A01 T01640015  RH  037%=      5-min Rain = 0
KWE2 172157Z 03005KT 16/01 A3011 RMK A01 T01640014  RH  036%=      5-min Rain = 0
KWE2 172158Z 03005KT 16/01 A3011 RMK A01 T01630014  RH  036%=      5-min Rain = 0
KWE2 172159Z 03005KT 16/02 A3011 RMK A01 T01630015  RH  037%=      5-min Rain = 0
KWE2 172200Z 02006KT 16/01 A3011 RMK A01 T01640014  RH  036%=      5-min Rain = 0
KWE2 172201Z 04004KT 17/01 A3011 RMK A01 T01650014  RH  036%=      5-min Rain = 0
KWE2 172202Z 03004KT 17/01 A3011 RMK A01 T01660014  RH  036%=      5-min Rain = 0
KWE2 172203Z 04006KT 17/01 A3011 RMK A01 T01650014  RH  036%=      5-min Rain = 0
KWE2 172204Z 03007KT 17/02 A3011 RMK A01 T01660015  RH  036%=      5-min Rain = 0
KWE2 172205Z 02007KT 17/01 A301 RMK A01 T01670014  RH  036%=      5-min Rain = 0
KWE2 172206Z 03006KT 17/02 A301 RMK A01 T01670015  RH  036%=      5-min Rain = 0
KWE2 172207Z 02006KT 17/02 A301 RMK A01 T01670015  RH  036%=      5-min Rain = 0
KWE2 172208Z 04006KT 17/01 A301 RMK A01 T01660014  RH  036%=      5-min Rain = 0
KWE2 172209Z 02005KT 17/01 A301 RMK A01 T01650013  RH  036%=      5-min Rain = 0
KWE2 172210Z 01006KT 17/01 A301 RMK A01 T01650014  RH  036%=      5-min Rain = 0
KWE2 172211Z 01006KT 17/01 A301 RMK A01 T01650014  RH  036%=      5-min Rain = 0
KWE2 172212Z 01005KT 17/01 A301 RMK A01 T01650013  RH  036%=      5-min Rain = 0
KWE2 172213Z 00008KT 17/01 A301 RMK A01 T01650014  RH  036%=      5-min Rain = 0
KWE2 172214Z 02008KT 16/01 A301 RMK A01 T01640014  RH  036%=      5-min Rain = 0
KWE2 172215Z 02007KT 16/01 A301 RMK A01 T01640014  RH  036%=      5-min Rain = 0
KWE2 172216Z 02008KT 16/02 A3009 RMK A01 T01640015  RH  036%=      5-min Rain = 0
KWE2 172217Z 02007KT 16/02 A3009 RMK A01 T01640015  RH  036%=      5-min Rain = 0
KWE2 172218Z 03007KT 16/02 A3009 RMK A01 T01640016  RH  037%=      5-min Rain = 0
KWE2 172219Z 05006KT 16/01 A3009 RMK A01 T01640014  RH  036%=      5-min Rain = 0
KWE2 172220Z 03005KT 16/01 A3009 RMK A01 T01640014  RH  036%=      5-min Rain = 0
KWE2 172221Z 02006KT 16/01 A301 RMK A01 T01640014  RH  036%=      5-min Rain = 0
KWE2 172222Z 01006KT 16/02 A301 RMK A01 T01630015  RH  037%=      5-min Rain = 0
KWE2 172223Z 01005KT 16/01 A301 RMK A01 T01640014  RH  036%=      5-min Rain = 0
KWE2 172224Z 02004KT 16/01 A301 RMK A01 T01630013  RH  036%=      5-min Rain = 0
KWE2 172225Z 02006KT 16/02 A3009 RMK A01 T01640015  RH  036%=      5-min Rain = 0
KWE2 172226Z 02006KT 17/01 A301 RMK A01 T01650013  RH  036%=      5-min Rain = 0
KWE2 172227Z 02006KT 16/01 A301 RMK A01 T01640012  RH  036%=      5-min Rain = 0
KWE2 172228Z 03006KT 17/01 A301 RMK A01 T01650012  RH  036%=      5-min Rain = 0
KWE2 172229Z 01005KT 16/01 A301 RMK A01 T01640011  RH  035%=      5-min Rain = 0
KWE2 172230Z 02005KT 16/01 A301 RMK A01 T01640010  RH  035%=      5-min Rain = 0
KWE2 172231Z 02005KT 16/01 A301 RMK A01 T01640011  RH  035%=      5-min Rain = 0
KWE2 172232Z 02004KT 16/01 A301 RMK A01 T01630011  RH  036%=      5-min Rain = 0
KWE2 172233Z 02004KT 16/01 A301 RMK A01 T01630011  RH  036%=      5-min Rain = 0
KWE2 172234Z 03003KT 16/01 A301 RMK A01 T01630011  RH  036%=      5-min Rain = 0
KWE2 172235Z 03004KT 16/01 A301 RMK A01 T01630013  RH  036%=      5-min Rain = 0
KWE2 172236Z 03006KT 16/01 A301 RMK A01 T01630014  RH  036%=      5-min Rain = 0
KWE2 172237Z 03006KT 16/02 A301 RMK A01 T01630015  RH  037%=      5-min Rain = 0
KWE2 172238Z 02006KT 16/02 A301 RMK A01 T01640015  RH  037%=      5-min Rain = 0
KWE2 172239Z 04004KT 16/02 A301 RMK A01 T01630015  RH  037%=      5-min Rain = 0
KWE2 172240Z 04005KT 16/02 A301 RMK A01 T01630016  RH  037%=      5-min Rain = 0
KWE2 172241Z 04005KT 16/02 A301 RMK A01 T01630016  RH  037%=      5-min Rain = 0
KWE2 172242Z 03005KT 16/01 A301 RMK A01 T01630014  RH  036%=      5-min Rain = 0
KWE2 172243Z 05004KT 16/01 A301 RMK A01 T01620014  RH  037%=      5-min Rain = 0
KWE2 172244Z 05004KT 16/02 A301 RMK A01 T01620015  RH  037%=      5-min Rain = 0
KWE2 172245Z 05004KT 16/02 A301 RMK A01 T01620015  RH  037%=      5-min Rain = 0
KWE2 172246Z 03003KT 16/01 A301 RMK A01 T01610014  RH  037%=      5-min Rain = 0
KWE2 172247Z 04005KT 16/02 A301 RMK A01 T01600016  RH  038%=      5-min Rain = 0
KWE2 172248Z 04005KT 16/02 A301 RMK A01 T01600017  RH  038%=      5-min Rain = 0
KWE2 172249Z 04004KT 16/02 A301 RMK A01 T01590016  RH  038%=      5-min Rain = 0
KWE2 172250Z 03005KT 16/02 A301 RMK A01 T01590017  RH  038%=      5-min Rain = 0
KWE2 172251Z 04004KT 16/02 A301 RMK A01 T01580015  RH  038%=      5-min Rain = 0
KWE2 172252Z 04004KT 16/02 A301 RMK A01 T01590015  RH  038%=      5-min Rain = 0
KWE2 172253Z 04003KT 16/02 A301 RMK A01 T01580015  RH  038%=      5-min Rain = 0
KWE2 172254Z 03003KT 16/02 A301 RMK A01 T01580015  RH  038%=      5-min Rain = 0
KWE2 172255Z 04003KT 16/02 A301 RMK A01 T01580016  RH  038%=      5-min Rain = 0
KWE2 172256Z 03003KT 16/02 A301 RMK A01 T01570015  RH  038%=      5-min Rain = 0
KWE2 172257Z 03002KT 16/02 A301 RMK A01 T01570016  RH  039%=      5-min Rain = 0
KWE2 172258Z 04002KT 16/02 A301 RMK A01 T01560016  RH  039%=      5-min Rain = 0
KWE2 172259Z 04003KT 16/02 A301 RMK A01 T01560015  RH  038%=      5-min Rain = 0
KWE2 172300Z 02004KT 16/01 A301 RMK A01 T01560014  RH  038%=      5-min Rain = 0
KWE2 172301Z 02003KT 16/01 A301 RMK A01 T01550014  RH  038%=      5-min Rain = 0
KWE2 172302Z 02003KT 16/01 A301 RMK A01 T01550014  RH  038%=      5-min Rain = 0
KWE2 172303Z 02004KT 16/02 A301 RMK A01 T01550015  RH  039%=      5-min Rain = 0
KWE2 172304Z 02003KT 15/02 A301 RMK A01 T01540015  RH  039%=      5-min Rain = 0
KWE2 172305Z 02003KT 15/02 A301 RMK A01 T01540015  RH  039%=      5-min Rain = 0
KWE2 172306Z 02003KT 15/02 A301 RMK A01 T01530015  RH  039%=      5-min Rain = 0
KWE2 172307Z 02003KT 15/02 A301 RMK A01 T01530015  RH  039%=      5-min Rain = 0
KWE2 172308Z 02002KT 15/02 A301 RMK A01 T01520015  RH  039%=      5-min Rain = 0
KWE2 172309Z 02003KT 15/02 A301 RMK A01 T01520016  RH  040%=      5-min Rain = 0
KWE2 172310Z 02002KT 15/02 A301 RMK A01 T01520016  RH  040%=      5-min Rain = 0
KWE2 172311Z 02002KT 15/02 A301 RMK A01 T01510016  RH  040%=      5-min Rain = 0
KWE2 172312Z 02002KT 15/02 A301 RMK A01 T01510016  RH  040%=      5-min Rain = 0
KWE2 172313Z 03002KT 15/02 A301 RMK A01 T01500017  RH  040%=      5-min Rain = 0
KWE2 172314Z 03002KT 15/02 A301 RMK A01 T01500017  RH  041%=      5-min Rain = 0
KWE2 172315Z 03002KT 15/02 A301 RMK A01 T01490017  RH  041%=      5-min Rain = 0
KWE2 172316Z 03003KT 15/02 A301 RMK A01 T01490017  RH  041%=      5-min Rain = 0
KWE2 172317Z 03003KT 15/02 A301 RMK A01 T01490015  RH  040%=      5-min Rain = 0
KWE2 172318Z 03003KT 15/02 A301 RMK A01 T01480015  RH  040%=      5-min Rain = 0
KWE2 172319Z 03003KT 15/02 A301 RMK A01 T01480015  RH  041%=      5-min Rain = 0
KWE2 172320Z 03002KT 15/02 A301 RMK A01 T01480015  RH  041%=      5-min Rain = 0
KWE2 172321Z 03002KT 15/02 A301 RMK A01 T01470015  RH  041%=      5-min Rain = 0
KWE2 172322Z 02002KT 15/02 A301 RMK A01 T01460015  RH  041%=      5-min Rain = 0
KWE2 172323Z 02002KT 15/02 A3011 RMK A01 T01450017  RH  042%=      5-min Rain = 0
KWE2 172324Z 02002KT 14/02 A3011 RMK A01 T01430017  RH  042%=      5-min Rain = 0
KWE2 172325Z 02002KT 14/02 A3011 RMK A01 T01430017  RH  043%=      5-min Rain = 0
KWE2 172326Z 01002KT 14/02 A3011 RMK A01 T01420018  RH  043%=      5-min Rain = 0
KWE2 172327Z 01002KT 14/02 A3011 RMK A01 T01420017  RH  043%=      5-min Rain = 0
KWE2 172328Z 00002KT 14/02 A3011 RMK A01 T01410017  RH  043%=      5-min Rain = 0
KWE2 172329Z 35002KT 14/02 A3011 RMK A01 T01410016  RH  043%=      5-min Rain = 0
KWE2 172330Z 00003KT 14/02 A3011 RMK A01 T01400015  RH  043%=      5-min Rain = 0
KWE2 172331Z 00003KT 14/02 A3011 RMK A01 T01390015  RH  043%=      5-min Rain = 0
KWE2 172332Z 00003KT 14/02 A3011 RMK A01 T01390015  RH  043%=      5-min Rain = 0
KWE2 172333Z 01003KT 14/02 A3011 RMK A01 T01390015  RH  043%=      5-min Rain = 0
KWE2 172334Z 01003KT 14/02 A3011 RMK A01 T01380017  RH  044%=      5-min Rain = 0
KWE2 172335Z 01002KT 14/02 A3011 RMK A01 T01360016  RH  044%=      5-min Rain = 0
KWE2 172336Z 01002KT 14/02 A3011 RMK A01 T01350017  RH  045%=      5-min Rain = 0
KWE2 172337Z 01002KT 13/02 A3011 RMK A01 T01330019  RH  046%=      5-min Rain = 0
KWE2 172338Z 01002KT 13/02 A3011 RMK A01 T01310020  RH  047%=      5-min Rain = 0
KWE2 172339Z 01003KT 13/02 A3011 RMK A01 T01290018  RH  047%=      5-min Rain = 0
KWE2 172340Z 01002KT 13/02 A3011 RMK A01 T01290016  RH  046%=      5-min Rain = 0
KWE2 172341Z 00002KT 13/02 A3011 RMK A01 T01290016  RH  046%=      5-min Rain = 0
KWE2 172342Z 01002KT 13/02 A3011 RMK A01 T01300015  RH  045%=      5-min Rain = 0
KWE2 172343Z 01003KT 13/02 A3011 RMK A01 T01330015  RH  045%=      5-min Rain = 0
KWE2 172344Z 01003KT 13/02 A3011 RMK A01 T01340017  RH  045%=      5-min Rain = 0
KWE2 172345Z 02002KT 13/02 A3011 RMK A01 T01330017  RH  045%=      5-min Rain = 0
KWE2 172346Z 02003KT 13/02 A3011 RMK A01 T01320016  RH  045%=      5-min Rain = 0
KWE2 172347Z 01002KT 13/02 A3011 RMK A01 T01310016  RH  046%=      5-min Rain = 0
KWE2 172348Z 02003KT 13/02 A3011 RMK A01 T01310016  RH  045%=      5-min Rain = 0
KWE2 172349Z 02003KT 13/02 A3011 RMK A01 T01320015  RH  045%=      5-min Rain = 0
KWE2 172350Z 01003KT 13/02 A3011 RMK A01 T01330015  RH  045%=      5-min Rain = 0
KWE2 172351Z 01003KT 13/02 A3011 RMK A01 T01330015  RH  045%=      5-min Rain = 0
KWE2 172352Z 01003KT 13/02 A3011 RMK A01 T01330016  RH  045%=      5-min Rain = 0
KWE2 172353Z 01003KT 13/02 A3011 RMK A01 T01290015  RH  046%=      5-min Rain = 0
KWE2 172354Z 00003KT 13/02 A3011 RMK A01 T01260016  RH  047%=      5-min Rain = 0
KWE2 172355Z 00003KT 12/02 A3011 RMK A01 T01230018  RH  049%=      5-min Rain = 0
KWE2 172356Z 01003KT 12/02 A3011 RMK A01 T01200018  RH  050%=      5-min Rain = 0
KWE2 172357Z 01003KT 12/02 A3011 RMK A01 T01170018  RH  050%=      5-min Rain = 0
KWE2 172358Z 01003KT 12/02 A3011 RMK A01 T01160016  RH  050%=      5-min Rain = 0
KWE2 172359Z 01004KT 12/02 A3011 RMK A01 T01160016  RH  050%=      5-min Rain = 0
KWE2 180000Z 01004KT 12/02 A3011 RMK A01 T01170016  RH  050%=      5-min Rain = 0
KWE2 180001Z 01003KT 12/02 A3011 RMK A01 T01190016  RH  049%=      5-min Rain = 0
KWE2 180002Z 01003KT 12/02 A3011 RMK A01 T01200016  RH  049%=      5-min Rain = 0
KWE2 180003Z 01003KT 12/02 A3011 RMK A01 T01210016  RH  049%=      5-min Rain = 0
KWE2 180004Z 01003KT 12/02 A3011 RMK A01 T01210016  RH  049%=      5-min Rain = 0
KWE2 180005Z 01003KT 12/02 A3011 RMK A01 T01210016  RH  049%=      5-min Rain = 0
KWE2 180006Z 01003KT 12/02 A3011 RMK A01 T01200016  RH  049%=      5-min Rain = 0
KWE2 180007Z 01003KT 12/02 A3011 RMK A01 T01190017  RH  049%=      5-min Rain = 0
KWE2 180008Z 01003KT 12/02 A3011 RMK A01 T01190017  RH  050%=      5-min Rain = 0
KWE2 180009Z 01003KT 12/02 A3011 RMK A01 T01180018  RH  050%=      5-min Rain = 0
KWE2 180010Z 01003KT 12/02 A3011 RMK A01 T01170018  RH  050%=      5-min Rain = 0
KWE2 180011Z 01003KT 12/02 A3011 RMK A01 T01170018  RH  050%=      5-min Rain = 0
KWE2 180012Z 00003KT 12/02 A3011 RMK A01 T01170017  RH  050%=      5-min Rain = 0
KWE2 180013Z 00003KT 12/02 A3011 RMK A01 T01170017  RH  050%=      5-min Rain = 0
KWE2 180014Z 00003KT 12/02 A3011 RMK A01 T01170018  RH  051%=      5-min Rain = 0
KWE2 180015Z 01003KT 12/02 A3011 RMK A01 T01170020  RH  052%=      5-min Rain = 0
KWE2 180016Z 01004KT 12/02 A3011 RMK A01 T01150020  RH  052%=      5-min Rain = 0
KWE2 180017Z 01004KT 11/02 A3011 RMK A01 T01130020  RH  052%=      5-min Rain = 0
KWE2 180018Z 01003KT 11/02 A3011 RMK A01 T01110018  RH  052%=      5-min Rain = 0
KWE2 180019Z 01003KT 11/02 A3011 RMK A01 T01090017  RH  053%=      5-min Rain = 0
KWE2 180020Z 01003KT 11/02 A3011 RMK A01 T01080017  RH  054%=      5-min Rain = 0
KWE2 180021Z 01003KT 11/02 A3011 RMK A01 T01070018  RH  054%=      5-min Rain = 0
KWE2 180022Z 02003KT 11/02 A3011 RMK A01 T01060017  RH  054%=      5-min Rain = 0
KWE2 180023Z 02004KT 11/02 A3011 RMK A01 T01050018  RH  055%=      5-min Rain = 0
KWE2 180024Z 02004KT 11/02 A3011 RMK A01 T01050018  RH  055%=      5-min Rain = 0
KWE2 180025Z 02003KT 11/02 A3011 RMK A01 T01050019  RH  055%=      5-min Rain = 0
KWE2 180026Z 02003KT 10/02 A3011 RMK A01 T01040018  RH  055%=      5-min Rain = 0
KWE2 180027Z 01003KT 10/02 A3012 RMK A01 T01040018  RH  055%=      5-min Rain = 0
KWE2 180028Z 02003KT 10/02 A3012 RMK A01 T01030018  RH  055%=      5-min Rain = 0
KWE2 180029Z 02002KT 10/02 A3012 RMK A01 T01020017  RH  056%=      5-min Rain = 0
KWE2 180030Z 02001KT 10/02 A3012 RMK A01 T00990017  RH  057%=      5-min Rain = 0
KWE2 180031Z 03001KT 10/02 A3012 RMK A01 T00950017  RH  058%=      5-min Rain = 0
KWE2 180032Z 01000KT 09/02 A3012 RMK A01 T00930018  RH  059%=      5-min Rain = 0
KWE2 180033Z 34001KT 09/02 A3012 RMK A01 T00920018  RH  060%=      5-min Rain = 0
KWE2 180034Z 02000KT 09/02 A3012 RMK A01 T00910017  RH  060%=      5-min Rain = 0
KWE2 180035Z 00001KT 09/02 A3012 RMK A01 T00930017  RH  059%=      5-min Rain = 0
KWE2 180036Z 03001KT 09/02 A3012 RMK A01 T00930017  RH  059%=      5-min Rain = 0
KWE2 180037Z 03001KT 09/02 A3012 RMK A01 T00940017  RH  059%=      5-min Rain = 0
KWE2 180038Z 03001KT 10/02 A3012 RMK A01 T00950017  RH  058%=      5-min Rain = 0
KWE2 180039Z 04002KT 10/02 A3012 RMK A01 T00960017  RH  058%=      5-min Rain = 0
KWE2 180040Z 04002KT 10/02 A3012 RMK A01 T00970017  RH  058%=      5-min Rain = 0
KWE2 180041Z 04002KT 10/02 A3012 RMK A01 T00970016  RH  057%=      5-min Rain = 0
KWE2 180042Z 04002KT 10/02 A3012 RMK A01 T00970016  RH  057%=      5-min Rain = 0
KWE2 180043Z 04002KT 10/02 A3012 RMK A01 T00980016  RH  057%=      5-min Rain = 0
KWE2 180044Z 04002KT 10/02 A3012 RMK A01 T00970017  RH  057%=      5-min Rain = 0
KWE2 180045Z 05002KT 10/02 A3012 RMK A01 T00970017  RH  057%=      5-min Rain = 0
KWE2 180046Z 04002KT 10/02 A3012 RMK A01 T00950016  RH  058%=      5-min Rain = 0
KWE2 180047Z 04002KT 10/02 A3012 RMK A01 T00950016  RH  058%=      5-min Rain = 0
KWE2 180048Z 03003KT 10/02 A3012 RMK A01 T00950015  RH  058%=      5-min Rain = 0
KWE2 180049Z 03003KT 10/02 A3012 RMK A01 T00950016  RH  058%=      5-min Rain = 0
KWE2 180050Z 02003KT 10/02 A3012 RMK A01 T00950016  RH  058%=      5-min Rain = 0
KWE2 180051Z 02003KT 10/02 A3012 RMK A01 T00950016  RH  058%=      5-min Rain = 0
KWE2 180052Z 02003KT 10/02 A3012 RMK A01 T00950016  RH  058%=      5-min Rain = 0
KWE2 180053Z 02002KT 10/02 A3012 RMK A01 T00950016  RH  058%=      5-min Rain = 0
KWE2 180054Z 02002KT 10/02 A3012 RMK A01 T00950017  RH  058%=      5-min Rain = 0
KWE2 180055Z 02002KT 09/02 A3012 RMK A01 T00920017  RH  059%=      5-min Rain = 0
KWE2 180056Z 02002KT 09/02 A3012 RMK A01 T00910017  RH  060%=      5-min Rain = 0
KWE2 180057Z 03002KT 09/02 A3012 RMK A01 T00900016  RH  060%=      5-min Rain = 0
KWE2 180058Z 04002KT 09/02 A3012 RMK A01 T00900017  RH  060%=      5-min Rain = 0
KWE2 180059Z 05002KT 09/02 A3012 RMK A01 T00900017  RH  060%=      5-min Rain = 0
KWE2 180100Z 04002KT 09/02 A3012 RMK A01 T00890017  RH  060%=      5-min Rain = 0
KWE2 180101Z 04002KT 09/02 A3012 RMK A01 T00890016  RH  060%=      5-min Rain = 0
KWE2 180102Z 04002KT 09/02 A3012 RMK A01 T00900016  RH  060%=      5-min Rain = 0
KWE2 180103Z 03002KT 09/02 A3012 RMK A01 T00900016  RH  060%=      5-min Rain = 0
KWE2 180104Z 03002KT 09/02 A3012 RMK A01 T00910016  RH  059%=      5-min Rain = 0
KWE2 180105Z 02002KT 09/02 A3012 RMK A01 T00910016  RH  059%=      5-min Rain = 0
KWE2 180106Z 02002KT 09/02 A3012 RMK A01 T00900017  RH  060%=      5-min Rain = 0
KWE2 180107Z 02002KT 09/02 A3012 RMK A01 T00900017  RH  060%=      5-min Rain = 0
KWE2 180108Z 02002KT 09/02 A3012 RMK A01 T00910016  RH  059%=      5-min Rain = 0
KWE2 180109Z 02002KT 09/02 A3012 RMK A01 T00920017  RH  059%=      5-min Rain = 0
KWE2 180110Z 02002KT 09/02 A3012 RMK A01 T00920016  RH  059%=      5-min Rain = 0
KWE2 180111Z 03002KT 09/02 A3012 RMK A01 T00930015  RH  058%=      5-min Rain = 0
KWE2 180112Z 03002KT 09/02 A3012 RMK A01 T00940015  RH  058%=      5-min Rain = 0
KWE2 180113Z 03002KT 09/02 A3012 RMK A01 T00940017  RH  058%=      5-min Rain = 0
KWE2 180114Z 03002KT 09/02 A3012 RMK A01 T00920017  RH  059%=      5-min Rain = 0
KWE2 180115Z 03002KT 09/02 A3012 RMK A01 T00900017  RH  060%=      5-min Rain = 0
KWE2 180116Z 01001KT 09/02 A3012 RMK A01 T00860017  RH  062%=      5-min Rain = 0
KWE2 180117Z 01002KT 08/02 A3012 RMK A01 T00820017  RH  064%=      5-min Rain = 0
KWE2 180118Z 01002KT 08/02 A3012 RMK A01 T00780016  RH  065%=      5-min Rain = 0
KWE2 180119Z 02002KT 08/02 A3012 RMK A01 T00750017  RH  067%=      5-min Rain = 0
KWE2 180120Z 02002KT 07/02 A3012 RMK A01 T00730018  RH  068%=      5-min Rain = 0
KWE2 180121Z 02002KT 07/02 A3012 RMK A01 T00730018  RH  068%=      5-min Rain = 0
KWE2 180122Z 02002KT 07/02 A3012 RMK A01 T00730017  RH  068%=      5-min Rain = 0
KWE2 180123Z 02002KT 07/02 A3012 RMK A01 T00740017  RH  067%=      5-min Rain = 0
KWE2 180124Z 03002KT 07/02 A3012 RMK A01 T00730017  RH  067%=      5-min Rain = 0
KWE2 180125Z 03003KT 07/02 A3012 RMK A01 T00730018  RH  068%=      5-min Rain = 0
KWE2 180126Z 03003KT 07/02 A3012 RMK A01 T00720018  RH  068%=      5-min Rain = 0
KWE2 180127Z 03003KT 07/02 A3012 RMK A01 T00710017  RH  068%=      5-min Rain = 0
KWE2 180128Z 03003KT 07/02 A3012 RMK A01 T00710016  RH  068%=      5-min Rain = 0
KWE2 180129Z 03003KT 07/02 A3012 RMK A01 T00710016  RH  068%=      5-min Rain = 0
KWE2 180130Z 03003KT 07/02 A3012 RMK A01 T00710016  RH  068%=      5-min Rain = 0
KWE2 180131Z 03003KT 07/02 A3012 RMK A01 T00710015  RH  068%=      5-min Rain = 0
KWE2 180132Z 03002KT 07/02 A3012 RMK A01 T00700016  RH  068%=      5-min Rain = 0
KWE2 180133Z 03002KT 07/02 A3012 RMK A01 T00710017  RH  069%=      5-min Rain = 0
KWE2 180134Z 03002KT 07/02 A3012 RMK A01 T00700018  RH  069%=      5-min Rain = 0
KWE2 180135Z 03003KT 07/02 A3012 RMK A01 T00710018  RH  069%=      5-min Rain = 0
KWE2 180136Z 03003KT 07/02 A3012 RMK A01 T00730018  RH  068%=      5-min Rain = 0
KWE2 180137Z 03003KT 07/02 A3012 RMK A01 T00730017  RH  067%=      5-min Rain = 0
KWE2 180138Z 03003KT 07/02 A3012 RMK A01 T00740017  RH  067%=      5-min Rain = 0
KWE2 180139Z 03003KT 07/02 A3012 RMK A01 T00740017  RH  067%=      5-min Rain = 0
KWE2 180140Z 03003KT 07/02 A3012 RMK A01 T00730017  RH  067%=      5-min Rain = 0
KWE2 180141Z 03002KT 07/02 A3012 RMK A01 T00730017  RH  068%=      5-min Rain = 0
KWE2 180142Z 03002KT 07/02 A3012 RMK A01 T00720017  RH  068%=      5-min Rain = 0
KWE2 180143Z 03002KT 07/02 A3012 RMK A01 T00700016  RH  068%=      5-min Rain = 0
KWE2 180144Z 03002KT 07/02 A3012 RMK A01 T00690015  RH  069%=      5-min Rain = 0
KWE2 180145Z 03002KT 07/02 A3012 RMK A01 T00690015  RH  069%=      5-min Rain = 0
KWE2 180146Z 04002KT 07/02 A3012 RMK A01 T00680016  RH  069%=      5-min Rain = 0
KWE2 180147Z 04002KT 07/02 A3012 RMK A01 T00680016  RH  069%=      5-min Rain = 0
KWE2 180148Z 05003KT 07/02 A3012 RMK A01 T00690017  RH  069%=      5-min Rain = 0
KWE2 180149Z 05003KT 07/02 A3012 RMK A01 T00690016  RH  069%=      5-min Rain = 0
KWE2 180150Z 05004KT 07/02 A3012 RMK A01 T00690017  RH  069%=      5-min Rain = 0
KWE2 180151Z 05004KT 07/02 A3012 RMK A01 T00690017  RH  069%=      5-min Rain = 0
KWE2 180152Z 05004KT 07/02 A3012 RMK A01 T00700015  RH  068%=      5-min Rain = 0
KWE2 180153Z 05004KT 07/02 A3012 RMK A01 T00720015  RH  067%=      5-min Rain = 0
KWE2 180154Z 05004KT 07/02 A3012 RMK A01 T00740016  RH  066%=      5-min Rain = 0
KWE2 180155Z 06004KT 08/02 A3011 RMK A01 T00750018  RH  067%=      5-min Rain = 0
KWE2 180156Z 06004KT 08/02 A3011 RMK A01 T00780018  RH  066%=      5-min Rain = 0
KWE2 180157Z 07003KT 08/02 A3011 RMK A01 T00790017  RH  065%=      5-min Rain = 0
KWE2 180158Z 07003KT 08/02 A3012 RMK A01 T00780016  RH  065%=      5-min Rain = 0
KWE2 180159Z 08003KT 07/01 A3012 RMK A01 T00720013  RH  066%=      5-min Rain = 0
KWE2 180200Z 09003KT 07/01 A3012 RMK A01 T00680012  RH  068%=      5-min Rain = 0
KWE2 180201Z 09002KT 07/01 A3011 RMK A01 T00670014  RH  069%=      5-min Rain = 0
KWE2 180202Z 10002KT 07/01 A3011 RMK A01 T00690014  RH  068%=      5-min Rain = 0
KWE2 180203Z 10002KT 07/01 A3011 RMK A01 T00700013  RH  067%=      5-min Rain = 0
KWE2 180204Z 09003KT 07/01 A3012 RMK A01 T00680012  RH  068%=      5-min Rain = 0
KWE2 180205Z 10003KT 07/01 A3012 RMK A01 T00670013  RH  068%=      5-min Rain = 0
KWE2 180206Z 10002KT 07/01 A3012 RMK A01 T00660012  RH  068%=      5-min Rain = 0
KWE2 180207Z 10002KT 07/01 A3012 RMK A01 T00660012  RH  068%=      5-min Rain = 0
KWE2 180208Z 11002KT 07/01 A3012 RMK A01 T00660013  RH  069%=      5-min Rain = 0
KWE2 180209Z 13002KT 07/01 A3012 RMK A01 T00650012  RH  069%=      5-min Rain = 0
KWE2 180210Z 14002KT 06/01 A3012 RMK A01 T00640011  RH  069%=      5-min Rain = 0
KWE2 180211Z 12002KT 06/01 A3012 RMK A01 T00630012  RH  070%=      5-min Rain = 0
KWE2 180212Z 11002KT 06/01 A3012 RMK A01 T00630013  RH  070%=      5-min Rain = 0
KWE2 180213Z 10002KT 06/01 A3012 RMK A01 T00630012  RH  070%=      5-min Rain = 0
KWE2 180214Z 09002KT 06/01 A3012 RMK A01 T00630013  RH  070%=      5-min Rain = 0
KWE2 180215Z 09003KT 06/01 A3012 RMK A01 T00630013  RH  070%=      5-min Rain = 0
KWE2 180216Z 09003KT 06/01 A3012 RMK A01 T00630012  RH  070%=      5-min Rain = 0
KWE2 180217Z 09003KT 06/01 A3012 RMK A01 T00630012  RH  070%=      5-min Rain = 0
KWE2 180218Z 10002KT 06/01 A3012 RMK A01 T00630012  RH  070%=      5-min Rain = 0
KWE2 180219Z 12002KT 06/01 A3012 RMK A01 T00630013  RH  071%=      5-min Rain = 0
KWE2 180220Z 13002KT 06/01 A3012 RMK A01 T00630013  RH  071%=      5-min Rain = 0
KWE2 180221Z 12002KT 06/01 A3012 RMK A01 T00620013  RH  071%=      5-min Rain = 0
KWE2 180222Z 12002KT 06/01 A3012 RMK A01 T00610012  RH  071%=      5-min Rain = 0
KWE2 180223Z 13002KT 06/01 A3012 RMK A01 T00600012  RH  071%=      5-min Rain = 0
KWE2 180224Z 12002KT 06/01 A3012 RMK A01 T00590012  RH  071%=      5-min Rain = 0
KWE2 180225Z 12002KT 06/01 A3012 RMK A01 T00590011  RH  072%=      5-min Rain = 0
KWE2 180226Z 11002KT 06/01 A3012 RMK A01 T00580011  RH  072%=      5-min Rain = 0
KWE2 180227Z 11002KT 06/01 A3012 RMK A01 T00580011  RH  072%=      5-min Rain = 0
KWE2 180228Z 10002KT 06/01 A3012 RMK A01 T00570011  RH  072%=      5-min Rain = 0
KWE2 180229Z 10002KT 06/01 A3012 RMK A01 T00570011  RH  072%=      5-min Rain = 0
KWE2 180230Z 10001KT 06/01 A3012 RMK A01 T00570011  RH  073%=      5-min Rain = 0
KWE2 180231Z 10001KT 06/01 A3012 RMK A01 T00570012  RH  073%=      5-min Rain = 0
KWE2 180232Z 11001KT 06/01 A3012 RMK A01 T00570012  RH  073%=      5-min Rain = 0
KWE2 180233Z 11001KT 06/01 A3012 RMK A01 T00560011  RH  073%=      5-min Rain = 0
KWE2 180234Z 12001KT 06/01 A3012 RMK A01 T00560012  RH  073%=      5-min Rain = 0
KWE2 180235Z 12001KT 06/01 A3012 RMK A01 T00560011  RH  073%=      5-min Rain = 0
KWE2 180236Z 11000KT 06/01 A3012 RMK A01 T00560012  RH  073%=      5-min Rain = 0
KWE2 180237Z 11001KT 06/01 A3012 RMK A01 T00560012  RH  073%=      5-min Rain = 0
KWE2 180238Z 10001KT 06/01 A3012 RMK A01 T00560011  RH  073%=      5-min Rain = 0
KWE2 180239Z 10001KT 06/01 A3012 RMK A01 T00560011  RH  073%=      5-min Rain = 0
KWE2 180240Z 10001KT 06/01 A3012 RMK A01 T00570011  RH  073%=      5-min Rain = 0
KWE2 180241Z 10001KT 06/01 A3012 RMK A01 T00570012  RH  072%=      5-min Rain = 0
KWE2 180242Z 11001KT 06/01 A3012 RMK A01 T00570012  RH  072%=      5-min Rain = 0
KWE2 180243Z 12001KT 06/01 A3012 RMK A01 T00570012  RH  073%=      5-min Rain = 0
KWE2 180244Z 14001KT 06/01 A3012 RMK A01 T00570013  RH  073%=      5-min Rain = 0
KWE2 180245Z 15002KT 06/01 A3012 RMK A01 T00570013  RH  073%=      5-min Rain = 0
KWE2 180246Z 15002KT 06/01 A3012 RMK A01 T00570013  RH  073%=      5-min Rain = 0
KWE2 180247Z 15002KT 06/01 A3012 RMK A01 T00570012  RH  073%=      5-min Rain = 0
KWE2 180248Z 16001KT 06/01 A3012 RMK A01 T00570013  RH  073%=      5-min Rain = 0
KWE2 180249Z 15001KT 06/01 A3012 RMK A01 T00570012  RH  073%=      5-min Rain = 0
KWE2 180250Z 14002KT 06/01 A3012 RMK A01 T00580012  RH  073%=      5-min Rain = 0
KWE2 180251Z 14001KT 06/01 A3012 RMK A01 T00580012  RH  072%=      5-min Rain = 0
KWE2 180252Z 13001KT 06/01 A3012 RMK A01 T00580011  RH  072%=      5-min Rain = 0
KWE2 180253Z 00000KT 06/01 A3012 RMK A01 T00560011  RH  073%=      5-min Rain = 0
KWE2 180254Z 00000KT 06/01 A3012 RMK A01 T00550012  RH  073%=      5-min Rain = 0
KWE2 180255Z 00000KT 06/01 A3013 RMK A01 T00550012  RH  074%=      5-min Rain = 0
KWE2 180256Z 15000KT 06/01 A3013 RMK A01 T00550012  RH  074%=      5-min Rain = 0
KWE2 180257Z 15001KT 06/01 A3013 RMK A01 T00550013  RH  074%=      5-min Rain = 0
KWE2 180258Z 15001KT 06/01 A3013 RMK A01 T00550014  RH  075%=      5-min Rain = 0
KWE2 180259Z 15000KT 06/02 A3013 RMK A01 T00550015  RH  075%=      5-min Rain = 0
KWE2 180300Z 15000KT 06/01 A3013 RMK A01 T00550014  RH  075%=      5-min Rain = 0
KWE2 180301Z 15000KT 06/01 A3013 RMK A01 T00550014  RH  075%=      5-min Rain = 0
KWE2 180302Z 15001KT 06/01 A3013 RMK A01 T00550014  RH  075%=      5-min Rain = 0
KWE2 180303Z 15001KT 06/01 A3013 RMK A01 T00550014  RH  075%=      5-min Rain = 0
KWE2 180304Z 15001KT 06/01 A3013 RMK A01 T00550014  RH  075%=      5-min Rain = 0
KWE2 180305Z 15001KT 06/01 A3013 RMK A01 T00550014  RH  075%=      5-min Rain = 0
KWE2 180306Z 17001KT 06/01 A3013 RMK A01 T00550013  RH  074%=      5-min Rain = 0
KWE2 180307Z 18001KT 06/01 A3013 RMK A01 T00550013  RH  074%=      5-min Rain = 0
KWE2 180308Z 19001KT 05/01 A3013 RMK A01 T00540012  RH  074%=      5-min Rain = 0
KWE2 180309Z 19001KT 05/01 A3013 RMK A01 T00530011  RH  075%=      5-min Rain = 0
KWE2 180310Z 18001KT 05/01 A3013 RMK A01 T00510011  RH  075%=      5-min Rain = 0
KWE2 180311Z 18001KT 05/01 A3013 RMK A01 T00510011  RH  076%=      5-min Rain = 0
KWE2 180312Z 18001KT 05/01 A3013 RMK A01 T00500011  RH  076%=      5-min Rain = 0
KWE2 180313Z 20002KT 05/01 A3014 RMK A01 T00490011  RH  076%=      5-min Rain = 0
KWE2 180314Z 21002KT 05/01 A3014 RMK A01 T00480011  RH  077%=      5-min Rain = 0
KWE2 180315Z 20002KT 05/01 A3014 RMK A01 T00480010  RH  077%=      5-min Rain = 0
KWE2 180316Z 20002KT 05/01 A3014 RMK A01 T00470010  RH  077%=      5-min Rain = 0
KWE2 180317Z 21002KT 05/01 A3014 RMK A01 T00480011  RH  077%=      5-min Rain = 0
KWE2 180318Z 21002KT 05/01 A3014 RMK A01 T00470011  RH  077%=      5-min Rain = 0
KWE2 180319Z 21002KT 05/01 A3014 RMK A01 T00480011  RH  077%=      5-min Rain = 0
KWE2 180320Z 21002KT 05/01 A3014 RMK A01 T00480011  RH  077%=      5-min Rain = 0
KWE2 180321Z 21001KT 05/01 A3013 RMK A01 T00480012  RH  078%=      5-min Rain = 0
KWE2 180322Z 21001KT 05/01 A3013 RMK A01 T00470012  RH  078%=      5-min Rain = 0
KWE2 180323Z 21002KT 05/01 A3013 RMK A01 T00470012  RH  078%=      5-min Rain = 0
KWE2 180324Z 22002KT 05/01 A3013 RMK A01 T00460012  RH  078%=      5-min Rain = 0
KWE2 180325Z 22002KT 05/01 A3013 RMK A01 T00450012  RH  079%=      5-min Rain = 0
KWE2 180326Z 21002KT 05/01 A3013 RMK A01 T00450012  RH  079%=      5-min Rain = 0
KWE2 180327Z 21002KT 05/01 A3013 RMK A01 T00450012  RH  079%=      5-min Rain = 0
KWE2 180328Z 21002KT 05/01 A3013 RMK A01 T00450013  RH  080%=      5-min Rain = 0
KWE2 180329Z 21002KT 05/01 A3013 RMK A01 T00450013  RH  080%=      5-min Rain = 0
KWE2 180330Z 21002KT 05/01 A3013 RMK A01 T00450013  RH  080%=      5-min Rain = 0
KWE2 180331Z 21002KT 05/01 A3013 RMK A01 T00450012  RH  079%=      5-min Rain = 0
KWE2 180332Z 20002KT 05/01 A3013 RMK A01 T00460012  RH  079%=      5-min Rain = 0
KWE2 180333Z 20002KT 05/01 A3013 RMK A01 T00460012  RH  079%=      5-min Rain = 0
KWE2 180334Z 20002KT 05/01 A3013 RMK A01 T00470012  RH  078%=      5-min Rain = 0
KWE2 180335Z 20002KT 05/01 A3013 RMK A01 T00470012  RH  078%=      5-min Rain = 0
KWE2 180336Z 20002KT 05/01 A3013 RMK A01 T00470012  RH  078%=      5-min Rain = 0
KWE2 180337Z 20002KT 05/01 A3013 RMK A01 T00470012  RH  078%=      5-min Rain = 0
KWE2 180338Z 20003KT 05/01 A3013 RMK A01 T00460012  RH  078%=      5-min Rain = 0
KWE2 180339Z 19003KT 05/01 A3013 RMK A01 T00460012  RH  079%=      5-min Rain = 0
KWE2 180340Z 19003KT 05/01 A3013 RMK A01 T00460012  RH  079%=      5-min Rain = 0
KWE2 180341Z 18003KT 05/01 A3013 RMK A01 T00470013  RH  079%=      5-min Rain = 0
KWE2 180342Z 19002KT 05/01 A3013 RMK A01 T00460012  RH  079%=      5-min Rain = 0
KWE2 180343Z 19003KT 05/01 A3013 RMK A01 T00460012  RH  079%=      5-min Rain = 0
KWE2 180344Z 19003KT 05/01 A3013 RMK A01 T00460011  RH  078%=      5-min Rain = 0
KWE2 180345Z 20003KT 05/01 A3013 RMK A01 T00450011  RH  078%=      5-min Rain = 0
KWE2 180346Z 19003KT 05/01 A3013 RMK A01 T00450010  RH  078%=      5-min Rain = 0
KWE2 180347Z 20003KT 05/01 A3014 RMK A01 T00450010  RH  078%=      5-min Rain = 0
KWE2 180348Z 19003KT 05/01 A3014 RMK A01 T00450011  RH  079%=      5-min Rain = 0
KWE2 180349Z 19003KT 05/01 A3014 RMK A01 T00450012  RH  079%=      5-min Rain = 0
KWE2 180350Z 19003KT 05/01 A3014 RMK A01 T00450012  RH  079%=      5-min Rain = 0
KWE2 180351Z 19002KT 05/01 A3013 RMK A01 T00460012  RH  079%=      5-min Rain = 0
KWE2 180352Z 19002KT 05/01 A3013 RMK A01 T00460012  RH  078%=      5-min Rain = 0
KWE2 180353Z 20002KT 05/01 A3013 RMK A01 T00460012  RH  078%=      5-min Rain = 0
KWE2 180354Z 20002KT 05/01 A3013 RMK A01 T00470012  RH  078%=      5-min Rain = 0
KWE2 180355Z 20002KT 05/01 A3013 RMK A01 T00470011  RH  078%=      5-min Rain = 0
KWE2 180356Z 20002KT 05/01 A3013 RMK A01 T00470011  RH  077%=      5-min Rain = 0
KWE2 180357Z 21002KT 05/01 A3013 RMK A01 T00470011  RH  077%=      5-min Rain = 0
KWE2 180358Z 21002KT 05/01 A3013 RMK A01 T00470011  RH  077%=      5-min Rain = 0
KWE2 180359Z 21002KT 05/01 A3013 RMK A01 T00480012  RH  078%=      5-min Rain = 0
KWE2 180400Z 22003KT 05/01 A3013 RMK A01 T00470011  RH  077%=      5-min Rain = 0
KWE2 180401Z 22003KT 05/01 A3013 RMK A01 T00470010  RH  077%=      5-min Rain = 0
KWE2 180402Z 21003KT 05/01 A3013 RMK A01 T00470010  RH  077%=      5-min Rain = 0
KWE2 180403Z 21003KT 05/01 A3013 RMK A01 T00460010  RH  078%=      5-min Rain = 0
KWE2 180404Z 21003KT 05/01 A3013 RMK A01 T00450010  RH  078%=      5-min Rain = 0
KWE2 180405Z 21003KT 04/01 A3013 RMK A01 T00440010  RH  078%=      5-min Rain = 0
KWE2 180406Z 22004KT 04/01 A3013 RMK A01 T00440010  RH  079%=      5-min Rain = 0
KWE2 180407Z 22004KT 04/01 A3013 RMK A01 T00440010  RH  079%=      5-min Rain = 0
KWE2 180408Z 22003KT 04/01 A3013 RMK A01 T00430009  RH  079%=      5-min Rain = 0
KWE2 180409Z 22003KT 04/01 A3013 RMK A01 T00420009  RH  079%=      5-min Rain = 0
KWE2 180410Z 22003KT 04/01 A3013 RMK A01 T00420009  RH  079%=      5-min Rain = 0
KWE2 180411Z 22003KT 04/01 A3013 RMK A01 T00410009  RH  080%=      5-min Rain = 0
KWE2 180412Z 22003KT 04/01 A3013 RMK A01 T00410010  RH  080%=      5-min Rain = 0
KWE2 180413Z 22003KT 04/01 A3013 RMK A01 T00410010  RH  080%=      5-min Rain = 0
KWE2 180414Z 22003KT 04/01 A3013 RMK A01 T00410010  RH  080%=      5-min Rain = 0
KWE2 180415Z 21003KT 04/01 A3013 RMK A01 T00420011  RH  080%=      5-min Rain = 0
KWE2 180416Z 21003KT 04/01 A3013 RMK A01 T00420010  RH  080%=      5-min Rain = 0
KWE2 180417Z 20003KT 04/01 A3012 RMK A01 T00420011  RH  080%=      5-min Rain = 0
KWE2 180418Z 20003KT 04/01 A3012 RMK A01 T00430012  RH  080%=      5-min Rain = 0
KWE2 180419Z 21003KT 04/01 A3012 RMK A01 T00440012  RH  079%=      5-min Rain = 0
KWE2 180420Z 21003KT 05/01 A3012 RMK A01 T00460012  RH  079%=      5-min Rain = 0
KWE2 180421Z 21003KT 05/01 A3012 RMK A01 T00460012  RH  078%=      5-min Rain = 0
KWE2 180422Z 21002KT 05/01 A3012 RMK A01 T00470012  RH  078%=      5-min Rain = 0
KWE2 180423Z 20002KT 05/01 A3012 RMK A01 T00470011  RH  078%=      5-min Rain = 0
KWE2 180424Z 20002KT 05/01 A3012 RMK A01 T00470011  RH  077%=      5-min Rain = 0
KWE2 180425Z 20002KT 05/01 A3012 RMK A01 T00470011  RH  077%=      5-min Rain = 0
KWE2 180426Z 21001KT 05/01 A3012 RMK A01 T00480011  RH  077%=      5-min Rain = 0
KWE2 180427Z 22002KT 05/01 A3012 RMK A01 T00480011  RH  077%=      5-min Rain = 0
KWE2 180428Z 22002KT 05/01 A3012 RMK A01 T00480011  RH  077%=      5-min Rain = 0
KWE2 180429Z 22002KT 05/01 A3012 RMK A01 T00480010  RH  076%=      5-min Rain = 0
KWE2 180430Z 22002KT 05/01 A3012 RMK A01 T00480010  RH  077%=      5-min Rain = 0
KWE2 180431Z 23002KT 05/01 A3012 RMK A01 T00460011  RH  078%=      5-min Rain = 0
KWE2 180432Z 23002KT 05/01 A3012 RMK A01 T00450010  RH  078%=      5-min Rain = 0
KWE2 180433Z 24002KT 04/01 A3012 RMK A01 T00430009  RH  078%=      5-min Rain = 0
KWE2 180434Z 25002KT 04/01 A3012 RMK A01 T00430010  RH  079%=      5-min Rain = 0
KWE2 180435Z 26002KT 04/01 A3012 RMK A01 T00430010  RH  079%=      5-min Rain = 0
KWE2 180436Z 26003KT 04/01 A3012 RMK A01 T00420010  RH  080%=      5-min Rain = 0
KWE2 180437Z 24003KT 04/01 A3012 RMK A01 T00420010  RH  080%=      5-min Rain = 0
KWE2 180438Z 24004KT 04/01 A3012 RMK A01 T00400007  RH  079%=      5-min Rain = 0
KWE2 180439Z 23003KT 04/01 A3012 RMK A01 T00370006  RH  080%=      5-min Rain = 0
KWE2 180440Z 23004KT 04/01 A3012 RMK A01 T00360007  RH  082%=      5-min Rain = 0
KWE2 180441Z 23004KT 04/01 A3012 RMK A01 T00360009  RH  082%=      5-min Rain = 0
KWE2 180442Z 23004KT 04/01 A3012 RMK A01 T00370009  RH  082%=      5-min Rain = 0
KWE2 180443Z 24004KT 04/01 A3012 RMK A01 T00370009  RH  082%=      5-min Rain = 0
KWE2 180444Z 24004KT 04/01 A3012 RMK A01 T00370009  RH  082%=      5-min Rain = 0
KWE2 180445Z 24003KT 04/01 A3012 RMK A01 T00360009  RH  082%=      5-min Rain = 0
KWE2 180446Z 24003KT 04/01 A3012 RMK A01 T00360008  RH  082%=      5-min Rain = 0
KWE2 180447Z 24003KT 04/01 A3012 RMK A01 T00360008  RH  082%=      5-min Rain = 0
KWE2 180448Z 24003KT 04/01 A3012 RMK A01 T00360009  RH  083%=      5-min Rain = 0
KWE2 180449Z 23003KT 04/01 A3012 RMK A01 T00350009  RH  083%=      5-min Rain = 0
KWE2 180450Z 23003KT 04/01 A3012 RMK A01 T00350009  RH  083%=      5-min Rain = 0
KWE2 180451Z 23002KT 04/01 A3012 RMK A01 T00350009  RH  083%=      5-min Rain = 0
KWE2 180452Z 23002KT 04/01 A3012 RMK A01 T00360010  RH  083%=      5-min Rain = 0
KWE2 180453Z 24003KT 04/01 A3012 RMK A01 T00360009  RH  083%=      5-min Rain = 0
KWE2 180454Z 24003KT 04/01 A3012 RMK A01 T00370010  RH  083%=      5-min Rain = 0
KWE2 180455Z 24003KT 04/01 A3012 RMK A01 T00370009  RH  082%=      5-min Rain = 0
KWE2 180456Z 24003KT 04/01 A3012 RMK A01 T00360008  RH  082%=      5-min Rain = 0
KWE2 180457Z 24003KT 04/01 A3012 RMK A01 T00360009  RH  082%=      5-min Rain = 0
KWE2 180458Z 24003KT 04/01 A3012 RMK A01 T00360009  RH  083%=      5-min Rain = 0
KWE2 180459Z 24004KT 04/01 A3012 RMK A01 T00360010  RH  083%=      5-min Rain = 0
KWE2 180500Z 23004KT 04/01 A3012 RMK A01 T00360009  RH  083%=      5-min Rain = 0
KWE2 180501Z 23004KT 04/01 A3012 RMK A01 T00370010  RH  083%=      5-min Rain = 0
KWE2 180502Z 24004KT 04/01 A3012 RMK A01 T00370010  RH  082%=      5-min Rain = 0
KWE2 180503Z 23005KT 04/01 A3012 RMK A01 T00370009  RH  082%=      5-min Rain = 0
KWE2 180504Z 23005KT 04/01 A3012 RMK A01 T00360009  RH  082%=      5-min Rain = 0
KWE2 180505Z 23006KT 04/01 A3012 RMK A01 T00360009  RH  082%=      5-min Rain = 0
KWE2 180506Z 23005KT 04/01 A3012 RMK A01 T00350008  RH  082%=      5-min Rain = 0
KWE2 180507Z 23005KT 03/01 A3012 RMK A01 T00340008  RH  083%=      5-min Rain = 0
KWE2 180508Z 23005KT 03/01 A3012 RMK A01 T00340008  RH  083%=      5-min Rain = 0
KWE2 180509Z 24005KT 03/01 A3012 RMK A01 T00330009  RH  084%=      5-min Rain = 0
KWE2 180510Z 24004KT 03/01 A3011 RMK A01 T00330009  RH  084%=      5-min Rain = 0
KWE2 180511Z 24004KT 03/01 A3011 RMK A01 T00330009  RH  085%=      5-min Rain = 0
KWE2 180512Z 24003KT 03/01 A3011 RMK A01 T00330009  RH  085%=      5-min Rain = 0
KWE2 180513Z 24003KT 03/01 A3011 RMK A01 T00330009  RH  085%=      5-min Rain = 0
KWE2 180514Z 25003KT 03/01 A3011 RMK A01 T00330010  RH  085%=      5-min Rain = 0
KWE2 180515Z 25003KT 03/01 A3011 RMK A01 T00340010  RH  085%=      5-min Rain = 0
KWE2 180516Z 25002KT 03/01 A3011 RMK A01 T00340011  RH  085%=      5-min Rain = 0
KWE2 180517Z 25002KT 03/01 A3011 RMK A01 T00340011  RH  085%=      5-min Rain = 0
KWE2 180518Z 25002KT 03/01 A3011 RMK A01 T00340010  RH  084%=      5-min Rain = 0
KWE2 180519Z 24003KT 03/01 A3011 RMK A01 T00340011  RH  084%=      5-min Rain = 0
KWE2 180520Z 24003KT 03/01 A3011 RMK A01 T00340010  RH  085%=      5-min Rain = 0
KWE2 180521Z 24003KT 03/01 A3011 RMK A01 T00340011  RH  085%=      5-min Rain = 0
KWE2 180522Z 24003KT 03/01 A3011 RMK A01 T00340012  RH  085%=      5-min Rain = 0
KWE2 180523Z 24002KT 04/01 A3011 RMK A01 T00350011  RH  084%=      5-min Rain = 0
KWE2 180524Z 24003KT 04/01 A3011 RMK A01 T00350011  RH  084%=      5-min Rain = 0
KWE2 180525Z 25003KT 04/01 A3011 RMK A01 T00350012  RH  085%=      5-min Rain = 0
KWE2 180526Z 24002KT 04/01 A3011 RMK A01 T00360013  RH  085%=      5-min Rain = 0
KWE2 180527Z 24003KT 04/01 A3011 RMK A01 T00370013  RH  085%=      5-min Rain = 0
KWE2 180528Z 23003KT 04/01 A3011 RMK A01 T00370013  RH  084%=      5-min Rain = 0
KWE2 180529Z 23003KT 04/01 A3011 RMK A01 T00370012  RH  084%=      5-min Rain = 0
KWE2 180530Z 23003KT 04/01 A3011 RMK A01 T00370012  RH  083%=      5-min Rain = 0
KWE2 180531Z 23003KT 04/01 A3011 RMK A01 T00370012  RH  084%=      5-min Rain = 0
KWE2 180532Z 23004KT 04/01 A3011 RMK A01 T00370012  RH  084%=      5-min Rain = 0
KWE2 180533Z 23004KT 04/01 A3011 RMK A01 T00370012  RH  084%=      5-min Rain = 0
KWE2 180534Z 23004KT 04/01 A3011 RMK A01 T00370011  RH  083%=      5-min Rain = 0
KWE2 180535Z 24003KT 04/01 A3011 RMK A01 T00370011  RH  083%=      5-min Rain = 0
KWE2 180536Z 23003KT 04/01 A3011 RMK A01 T00370011  RH  083%=      5-min Rain = 0
KWE2 180537Z 23003KT 04/01 A3011 RMK A01 T00370011  RH  084%=      5-min Rain = 0
KWE2 180538Z 23003KT 04/01 A3011 RMK A01 T00360011  RH  084%=      5-min Rain = 0
KWE2 180539Z 23003KT 04/01 A3011 RMK A01 T00360012  RH  084%=      5-min Rain = 0
KWE2 180540Z 22002KT 04/01 A3011 RMK A01 T00360012  RH  085%=      5-min Rain = 0
KWE2 180541Z 22002KT 04/01 A3011 RMK A01 T00360012  RH  085%=      5-min Rain = 0
KWE2 180542Z 22003KT 04/01 A3011 RMK A01 T00360012  RH  084%=      5-min Rain = 0
KWE2 180543Z 22003KT 04/01 A301 RMK A01 T00360012  RH  084%=      5-min Rain = 0
KWE2 180544Z 22003KT 04/01 A301 RMK A01 T00360012  RH  084%=      5-min Rain = 0
KWE2 180545Z 22003KT 04/01 A301 RMK A01 T00370012  RH  084%=      5-min Rain = 0
KWE2 180546Z 22003KT 04/01 A301 RMK A01 T00370012  RH  084%=      5-min Rain = 0
KWE2 180547Z 22003KT 04/01 A301 RMK A01 T00360011  RH  084%=      5-min Rain = 0
KWE2 180548Z 21004KT 04/01 A301 RMK A01 T00370011  RH  083%=      5-min Rain = 0
KWE2 180549Z 21004KT 04/01 A301 RMK A01 T00370011  RH  083%=      5-min Rain = 0
KWE2 180550Z 21003KT 04/01 A301 RMK A01 T00360010  RH  083%=      5-min Rain = 0
KWE2 180551Z 22004KT 04/01 A301 RMK A01 T00360010  RH  083%=      5-min Rain = 0
KWE2 180552Z 22004KT 04/01 A301 RMK A01 T00370011  RH  083%=      5-min Rain = 0
KWE2 180553Z 22004KT 04/01 A301 RMK A01 T00370011  RH  083%=      5-min Rain = 0
KWE2 180554Z 22005KT 04/01 A301 RMK A01 T00370010  RH  083%=      5-min Rain = 0
KWE2 180555Z 22005KT 04/01 A301 RMK A01 T00370010  RH  083%=      5-min Rain = 0
KWE2 180556Z 22005KT 04/01 A301 RMK A01 T00370009  RH  082%=      5-min Rain = 0
KWE2 180557Z 22004KT 04/01 A301 RMK A01 T00370008  RH  082%=      5-min Rain = 0
KWE2 180558Z 22005KT 04/01 A301 RMK A01 T00360008  RH  082%=      5-min Rain = 0
KWE2 180559Z 22004KT 04/01 A301 RMK A01 T00350008  RH  082%=      5-min Rain = 0

Page generated in 0.0708 seconds.